Observation data for Coyanosa on 09/24/2019      Previous  Date  Next       Current Mesonet Observations  Soil Data  Daily Summary Page  Observations in Plain Language
KCO1 240500Z 17009KT 24/19 A2998 RMK A01 T02350186  RH  074%=      5-min Rain = 0
KCO1 240501Z 17008KT 24/19 A2998 RMK A01 T02350186  RH  074%=      5-min Rain = 0
KCO1 240502Z 17009KT 24/19 A2998 RMK A01 T02350186  RH  074%=      5-min Rain = 0
KCO1 240503Z 17010KT 24/19 A2998 RMK A01 T02350185  RH  074%=      5-min Rain = 0
KCO1 240504Z 17010KT 24/19 A2998 RMK A01 T02350185  RH  073%=      5-min Rain = 0
KCO1 240505Z 17010KT 24/18 A2998 RMK A01 T02360184  RH  073%=      5-min Rain = 0
KCO1 240506Z 16011KT 24/18 A2998 RMK A01 T02360184  RH  073%=      5-min Rain = 0
KCO1 240507Z 17010KT 24/18 A2998 RMK A01 T02360184  RH  072%=      5-min Rain = 0
KCO1 240508Z 16010KT 24/18 A2998 RMK A01 T02360184  RH  072%=      5-min Rain = 0
KCO1 240509Z 17011KT 24/18 A2998 RMK A01 T02360184  RH  072%=      5-min Rain = 0
KCO1 240510Z 17010KT 24/18 A2998 RMK A01 T02360183  RH  072%=      5-min Rain = 0
KCO1 240511Z 17011KT 24/18 A2998 RMK A01 T02360184  RH  072%=      5-min Rain = 0
KCO1 240512Z 16010KT 24/18 A2998 RMK A01 T02360183  RH  072%=      5-min Rain = 0
KCO1 240513Z 16010KT 24/18 A2998 RMK A01 T02370183  RH  072%=      5-min Rain = 0
KCO1 240514Z 17010KT 24/18 A2998 RMK A01 T02370183  RH  072%=      5-min Rain = 0
KCO1 240515Z 17010KT 24/18 A2998 RMK A01 T02370183  RH  071%=      5-min Rain = 0
KCO1 240516Z 17011KT 24/18 A2998 RMK A01 T02370183  RH  072%=      5-min Rain = 0
KCO1 240517Z 17011KT 24/18 A2998 RMK A01 T02370183  RH  071%=      5-min Rain = 0
KCO1 240518Z 17011KT 24/18 A2998 RMK A01 T02370183  RH  071%=      5-min Rain = 0
KCO1 240519Z 17012KT 24/18 A2998 RMK A01 T02370181  RH  071%=      5-min Rain = 0
KCO1 240520Z 17010KT 24/18 A2998 RMK A01 T02380182  RH  071%=      5-min Rain = 0
KCO1 240521Z 17011KT 24/18 A2998 RMK A01 T02380182  RH  071%=      5-min Rain = 0
KCO1 240522Z 17010KT 24/18 A2998 RMK A01 T02380182  RH  071%=      5-min Rain = 0
KCO1 240523Z 16011KT 24/18 A2998 RMK A01 T02370182  RH  071%=      5-min Rain = 0
KCO1 240524Z 16009KT 24/18 A2998 RMK A01 T02370181  RH  071%=      5-min Rain = 0
KCO1 240525Z 17010KT 24/18 A2998 RMK A01 T02370182  RH  071%=      5-min Rain = 0
KCO1 240526Z 17011KT 24/18 A2998 RMK A01 T02370181  RH  071%=      5-min Rain = 0
KCO1 240527Z 17011KT 24/18 A2997 RMK A01 T02370181  RH  071%=      5-min Rain = 0
KCO1 240528Z 16011KT 24/18 A2998 RMK A01 T02380181  RH  070%=      5-min Rain = 0
KCO1 240529Z 16011KT 24/18 A2998 RMK A01 T02380181  RH  070%=      5-min Rain = 0
KCO1 240530Z 16011KT 24/18 A2998 RMK A01 T02380180  RH  070%=      5-min Rain = 0
KCO1 240531Z 16011KT 24/18 A2998 RMK A01 T02390180  RH  070%=      5-min Rain = 0
KCO1 240532Z 16012KT 24/18 A2998 RMK A01 T02390180  RH  070%=      5-min Rain = 0
KCO1 240533Z 16010KT 24/18 A2998 RMK A01 T02390180  RH  069%=      5-min Rain = 0
KCO1 240534Z 16008KT 24/18 A2998 RMK A01 T02400181  RH  069%=      5-min Rain = 0
KCO1 240535Z 17009KT 24/18 A2998 RMK A01 T02400182  RH  070%=      5-min Rain = 0
KCO1 240536Z 16008KT 24/18 A2998 RMK A01 T02390181  RH  070%=      5-min Rain = 0
KCO1 240537Z 16007KT 24/18 A2998 RMK A01 T02390183  RH  071%=      5-min Rain = 0
KCO1 240538Z 16008KT 24/18 A2998 RMK A01 T02380182  RH  071%=      5-min Rain = 0
KCO1 240539Z 16006KT 24/18 A2997 RMK A01 T02380182  RH  071%=      5-min Rain = 0
KCO1 240540Z 15005KT 24/18 A2997 RMK A01 T02370182  RH  071%=      5-min Rain = 0
KCO1 240541Z 15006KT 24/18 A2997 RMK A01 T02360182  RH  072%=      5-min Rain = 0
KCO1 240542Z 15007KT 24/18 A2997 RMK A01 T02360182  RH  072%=      5-min Rain = 0
KCO1 240543Z 15007KT 24/18 A2997 RMK A01 T02360182  RH  072%=      5-min Rain = 0
KCO1 240544Z 15008KT 24/18 A2997 RMK A01 T02350182  RH  072%=      5-min Rain = 0
KCO1 240545Z 15008KT 24/18 A2998 RMK A01 T02350182  RH  072%=      5-min Rain = 0
KCO1 240546Z 14008KT 24/18 A2998 RMK A01 T02350181  RH  072%=      5-min Rain = 0
KCO1 240547Z 15008KT 24/18 A2998 RMK A01 T02350181  RH  072%=      5-min Rain = 0
KCO1 240548Z 15007KT 24/18 A2998 RMK A01 T02350181  RH  072%=      5-min Rain = 0
KCO1 240549Z 15007KT 24/18 A2998 RMK A01 T02350182  RH  072%=      5-min Rain = 0
KCO1 240550Z 15008KT 24/18 A2998 RMK A01 T02350182  RH  072%=      5-min Rain = 0
KCO1 240551Z 15007KT 24/18 A2998 RMK A01 T02350181  RH  072%=      5-min Rain = 0
KCO1 240552Z 15008KT 24/18 A2998 RMK A01 T02350181  RH  072%=      5-min Rain = 0
KCO1 240553Z 15007KT 23/18 A2998 RMK A01 T02340181  RH  072%=      5-min Rain = 0
KCO1 240554Z 16006KT 23/18 A2998 RMK A01 T02340182  RH  072%=      5-min Rain = 0
KCO1 240555Z 15006KT 23/18 A2998 RMK A01 T02340182  RH  072%=      5-min Rain = 0
KCO1 240556Z 16005KT 23/18 A2998 RMK A01 T02340182  RH  073%=      5-min Rain = 0
KCO1 240557Z 17007KT 23/18 A2998 RMK A01 T02340182  RH  073%=      5-min Rain = 0
KCO1 240558Z 16006KT 23/18 A2998 RMK A01 T02330182  RH  073%=      5-min Rain = 0
KCO1 240559Z 16008KT 23/18 A2998 RMK A01 T02330181  RH  073%=      5-min Rain = 0
KCO1 240600Z 17009KT 23/18 A2998 RMK A01 T02330180  RH  072%=      5-min Rain = 0
KCO1 240601Z 16009KT 23/18 A2998 RMK A01 T02340180  RH  072%=      5-min Rain = 0
KCO1 240602Z 17008KT 23/18 A2998 RMK A01 T02340180  RH  072%=      5-min Rain = 0
KCO1 240603Z 17008KT 23/18 A2998 RMK A01 T02340180  RH  072%=      5-min Rain = 0
KCO1 240604Z 16008KT 23/18 A2998 RMK A01 T02340180  RH  072%=      5-min Rain = 0
KCO1 240605Z 16008KT 23/18 A2998 RMK A01 T02340181  RH  072%=      5-min Rain = 0
KCO1 240606Z 16008KT 23/18 A2998 RMK A01 T02340181  RH  072%=      5-min Rain = 0
KCO1 240607Z 16008KT 23/18 A2998 RMK A01 T02340181  RH  072%=      5-min Rain = 0
KCO1 240608Z 16009KT 23/18 A2998 RMK A01 T02340181  RH  072%=      5-min Rain = 0
KCO1 240609Z 16009KT 23/18 A2998 RMK A01 T02340181  RH  072%=      5-min Rain = 0
KCO1 240610Z 16007KT 23/18 A2997 RMK A01 T02340181  RH  072%=      5-min Rain = 0
KCO1 240611Z 15006KT 24/18 A2997 RMK A01 T02350182  RH  072%=      5-min Rain = 0
KCO1 240612Z 15006KT 23/18 A2997 RMK A01 T02340183  RH  073%=      5-min Rain = 0
KCO1 240613Z 15006KT 23/18 A2997 RMK A01 T02330183  RH  073%=      5-min Rain = 0
KCO1 240614Z 15006KT 23/18 A2997 RMK A01 T02320183  RH  074%=      5-min Rain = 0
KCO1 240615Z 15006KT 23/18 A2997 RMK A01 T02320183  RH  074%=      5-min Rain = 0
KCO1 240616Z 15007KT 23/18 A2997 RMK A01 T02310183  RH  074%=      5-min Rain = 0
KCO1 240617Z 15006KT 23/18 A2997 RMK A01 T02310184  RH  074%=      5-min Rain = 0
KCO1 240618Z 15007KT 23/18 A2997 RMK A01 T02310183  RH  075%=      5-min Rain = 0
KCO1 240619Z 15007KT 23/18 A2997 RMK A01 T02300183  RH  075%=      5-min Rain = 0
KCO1 240620Z 15007KT 23/18 A2997 RMK A01 T02300183  RH  075%=      5-min Rain = 0
KCO1 240621Z 15006KT 23/18 A2997 RMK A01 T02300183  RH  075%=      5-min Rain = 0
KCO1 240622Z 15006KT 23/18 A2997 RMK A01 T02300184  RH  075%=      5-min Rain = 0
KCO1 240623Z 14007KT 23/18 A2997 RMK A01 T02300184  RH  075%=      5-min Rain = 0
KCO1 240624Z 14007KT 23/18 A2997 RMK A01 T02300184  RH  075%=      5-min Rain = 0
KCO1 240625Z 15007KT 23/18 A2997 RMK A01 T02300184  RH  075%=      5-min Rain = 0
KCO1 240626Z 14007KT 23/18 A2997 RMK A01 T02300184  RH  075%=      5-min Rain = 0
KCO1 240627Z 15007KT 23/18 A2997 RMK A01 T02300184  RH  075%=      5-min Rain = 0
KCO1 240628Z 15007KT 23/18 A2997 RMK A01 T02300184  RH  075%=      5-min Rain = 0
KCO1 240629Z 14006KT 23/18 A2997 RMK A01 T02300184  RH  075%=      5-min Rain = 0
KCO1 240630Z 14007KT 23/18 A2997 RMK A01 T02300184  RH  076%=      5-min Rain = 0
KCO1 240631Z 14006KT 23/18 A2997 RMK A01 T02290184  RH  076%=      5-min Rain = 0
KCO1 240632Z 15005KT 23/18 A2997 RMK A01 T02290184  RH  076%=      5-min Rain = 0
KCO1 240633Z 16005KT 23/19 A2997 RMK A01 T02280185  RH  076%=      5-min Rain = 0
KCO1 240634Z 16006KT 23/19 A2997 RMK A01 T02280185  RH  076%=      5-min Rain = 0
KCO1 240635Z 17007KT 23/18 A2997 RMK A01 T02280184  RH  076%=      5-min Rain = 0
KCO1 240636Z 17007KT 23/18 A2997 RMK A01 T02290184  RH  076%=      5-min Rain = 0
KCO1 240637Z 17008KT 23/19 A2997 RMK A01 T02300185  RH  076%=      5-min Rain = 0
KCO1 240638Z 17006KT 23/19 A2997 RMK A01 T02300185  RH  075%=      5-min Rain = 0
KCO1 240639Z 18006KT 23/19 A2997 RMK A01 T02300185  RH  076%=      5-min Rain = 0
KCO1 240640Z 17006KT 23/19 A2997 RMK A01 T02290185  RH  076%=      5-min Rain = 0
KCO1 240641Z 17006KT 23/19 A2997 RMK A01 T02290185  RH  076%=      5-min Rain = 0
KCO1 240642Z 17006KT 23/19 A2997 RMK A01 T02280185  RH  077%=      5-min Rain = 0
KCO1 240643Z 17006KT 23/19 A2997 RMK A01 T02280186  RH  077%=      5-min Rain = 0
KCO1 240644Z 17005KT 23/19 A2997 RMK A01 T02280186  RH  077%=      5-min Rain = 0
KCO1 240645Z 17006KT 23/19 A2997 RMK A01 T02280186  RH  077%=      5-min Rain = 0
KCO1 240646Z 17006KT 23/19 A2997 RMK A01 T02280187  RH  078%=      5-min Rain = 0
KCO1 240647Z 18005KT 23/19 A2997 RMK A01 T02280187  RH  078%=      5-min Rain = 0
KCO1 240648Z 18005KT 23/19 A2997 RMK A01 T02280187  RH  078%=      5-min Rain = 0
KCO1 240649Z 18005KT 23/19 A2998 RMK A01 T02280187  RH  078%=      5-min Rain = 0
KCO1 240650Z 18005KT 23/19 A2998 RMK A01 T02280188  RH  078%=      5-min Rain = 0
KCO1 240651Z 18005KT 23/19 A2998 RMK A01 T02280187  RH  078%=      5-min Rain = 0
KCO1 240652Z 18005KT 23/19 A2998 RMK A01 T02270187  RH  078%=      5-min Rain = 0
KCO1 240653Z 18005KT 23/19 A2998 RMK A01 T02280188  RH  078%=      5-min Rain = 0
KCO1 240654Z 18005KT 23/19 A2998 RMK A01 T02280188  RH  078%=      5-min Rain = 0
KCO1 240655Z 17005KT 23/19 A2997 RMK A01 T02280188  RH  078%=      5-min Rain = 0
KCO1 240656Z 17005KT 23/19 A2997 RMK A01 T02280188  RH  078%=      5-min Rain = 0
KCO1 240657Z 17005KT 23/19 A2997 RMK A01 T02280188  RH  078%=      5-min Rain = 0
KCO1 240658Z 16005KT 23/19 A2998 RMK A01 T02270188  RH  078%=      5-min Rain = 0
KCO1 240659Z 16005KT 23/19 A2998 RMK A01 T02270188  RH  078%=      5-min Rain = 0
KCO1 240700Z 16006KT 23/19 A2998 RMK A01 T02270188  RH  078%=      5-min Rain = 0
KCO1 240701Z 16007KT 23/19 A2998 RMK A01 T02270188  RH  078%=      5-min Rain = 0
KCO1 240702Z 16007KT 23/19 A2998 RMK A01 T02280187  RH  078%=      5-min Rain = 0
KCO1 240703Z 15006KT 23/19 A2998 RMK A01 T02280187  RH  078%=      5-min Rain = 0
KCO1 240704Z 15005KT 23/19 A2998 RMK A01 T02290188  RH  078%=      5-min Rain = 0
KCO1 240705Z 14004KT 23/19 A2998 RMK A01 T02290189  RH  078%=      5-min Rain = 0
KCO1 240706Z 14004KT 23/19 A2998 RMK A01 T02290189  RH  078%=      5-min Rain = 0
KCO1 240707Z 13003KT 23/19 A2998 RMK A01 T02280189  RH  078%=      5-min Rain = 0
KCO1 240708Z 12003KT 23/19 A2998 RMK A01 T02270189  RH  079%=      5-min Rain = 0
KCO1 240709Z 11003KT 23/19 A2998 RMK A01 T02270189  RH  079%=      5-min Rain = 0
KCO1 240710Z 10003KT 23/19 A2998 RMK A01 T02260189  RH  079%=      5-min Rain = 0
KCO1 240711Z 10004KT 23/19 A2998 RMK A01 T02250188  RH  080%=      5-min Rain = 0
KCO1 240712Z 10004KT 22/19 A2998 RMK A01 T02240188  RH  080%=      5-min Rain = 0
KCO1 240713Z 10004KT 22/19 A2998 RMK A01 T02230188  RH  081%=      5-min Rain = 0
KCO1 240714Z 10005KT 22/19 A2998 RMK A01 T02220188  RH  081%=      5-min Rain = 0
KCO1 240715Z 09005KT 22/19 A2998 RMK A01 T02210188  RH  082%=      5-min Rain = 0
KCO1 240716Z 08005KT 22/19 A2998 RMK A01 T02200188  RH  082%=      5-min Rain = 0
KCO1 240717Z 08006KT 22/19 A2998 RMK A01 T02190188  RH  082%=      5-min Rain = 0
KCO1 240718Z 08006KT 22/19 A2998 RMK A01 T02180188  RH  083%=      5-min Rain = 0
KCO1 240719Z 08006KT 22/19 A2998 RMK A01 T02180188  RH  083%=      5-min Rain = 0
KCO1 240720Z 08006KT 22/19 A2998 RMK A01 T02170187  RH  083%=      5-min Rain = 0
KCO1 240721Z 08005KT 22/19 A2998 RMK A01 T02160187  RH  083%=      5-min Rain = 0
KCO1 240722Z 08005KT 22/19 A2998 RMK A01 T02160187  RH  083%=      5-min Rain = 0
KCO1 240723Z 08006KT 22/19 A2998 RMK A01 T02150187  RH  084%=      5-min Rain = 0
KCO1 240724Z 09005KT 22/19 A2998 RMK A01 T02150187  RH  084%=      5-min Rain = 0
KCO1 240725Z 09006KT 22/19 A2998 RMK A01 T02150187  RH  084%=      5-min Rain = 0
KCO1 240726Z 09006KT 22/19 A2998 RMK A01 T02160187  RH  084%=      5-min Rain = 0
KCO1 240727Z 09006KT 22/19 A2998 RMK A01 T02150187  RH  084%=      5-min Rain = 0
KCO1 240728Z 09006KT 22/19 A2998 RMK A01 T02150187  RH  084%=      5-min Rain = 0
KCO1 240729Z 10006KT 22/19 A2998 RMK A01 T02150187  RH  084%=      5-min Rain = 0
KCO1 240730Z 10006KT 22/19 A2998 RMK A01 T02150187  RH  084%=      5-min Rain = 0
KCO1 240731Z 09006KT 22/19 A2998 RMK A01 T02150187  RH  084%=      5-min Rain = 0
KCO1 240732Z 10005KT 22/19 A2998 RMK A01 T02150187  RH  084%=      5-min Rain = 0
KCO1 240733Z 10005KT 22/19 A2998 RMK A01 T02150187  RH  084%=      5-min Rain = 0
KCO1 240734Z 10005KT 22/19 A2998 RMK A01 T02150186  RH  084%=      5-min Rain = 0
KCO1 240735Z 10005KT 22/19 A2998 RMK A01 T02150186  RH  084%=      5-min Rain = 0
KCO1 240736Z 10006KT 22/19 A2998 RMK A01 T02160187  RH  084%=      5-min Rain = 0
KCO1 240737Z 10006KT 22/19 A2998 RMK A01 T02150186  RH  083%=      5-min Rain = 0
KCO1 240738Z 11006KT 22/19 A2998 RMK A01 T02150186  RH  083%=      5-min Rain = 0
KCO1 240739Z 11006KT 22/19 A2998 RMK A01 T02150186  RH  083%=      5-min Rain = 0
KCO1 240740Z 11006KT 22/19 A2998 RMK A01 T02150186  RH  083%=      5-min Rain = 0
KCO1 240741Z 12005KT 22/19 A2998 RMK A01 T02150186  RH  083%=      5-min Rain = 0
KCO1 240742Z 12006KT 22/19 A2998 RMK A01 T02150185  RH  083%=      5-min Rain = 0
KCO1 240743Z 12006KT 22/19 A2998 RMK A01 T02150186  RH  083%=      5-min Rain = 0
KCO1 240744Z 12006KT 22/19 A2998 RMK A01 T02150185  RH  083%=      5-min Rain = 0
KCO1 240745Z 12006KT 22/19 A2998 RMK A01 T02150185  RH  083%=      5-min Rain = 0
KCO1 240746Z 12006KT 22/19 A2998 RMK A01 T02150185  RH  083%=      5-min Rain = 0
KCO1 240747Z 12006KT 22/19 A2998 RMK A01 T02150186  RH  083%=      5-min Rain = 0
KCO1 240748Z 12006KT 22/19 A2998 RMK A01 T02150186  RH  084%=      5-min Rain = 0
KCO1 240749Z 11007KT 22/19 A2998 RMK A01 T02150186  RH  084%=      5-min Rain = 0
KCO1 240750Z 11006KT 22/19 A2998 RMK A01 T02150187  RH  084%=      5-min Rain = 0
KCO1 240751Z 11006KT 22/19 A2998 RMK A01 T02150187  RH  084%=      5-min Rain = 0
KCO1 240752Z 10006KT 22/19 A2998 RMK A01 T02150187  RH  084%=      5-min Rain = 0
KCO1 240753Z 10006KT 21/19 A2998 RMK A01 T02140187  RH  084%=      5-min Rain = 0
KCO1 240754Z 10006KT 21/19 A2998 RMK A01 T02140186  RH  084%=      5-min Rain = 0
KCO1 240755Z 10006KT 21/19 A2998 RMK A01 T02130186  RH  084%=      5-min Rain = 0
KCO1 240756Z 10006KT 21/19 A2998 RMK A01 T02130186  RH  084%=      5-min Rain = 0
KCO1 240757Z 10006KT 21/19 A2998 RMK A01 T02130185  RH  084%=      5-min Rain = 0
KCO1 240758Z 10006KT 21/19 A2998 RMK A01 T02130185  RH  084%=      5-min Rain = 0
KCO1 240759Z 10005KT 21/19 A2998 RMK A01 T02120185  RH  084%=      5-min Rain = 0
KCO1 240800Z 09005KT 21/18 A2998 RMK A01 T02120184  RH  084%=      5-min Rain = 0
KCO1 240801Z 09006KT 21/18 A2998 RMK A01 T02120184  RH  084%=      5-min Rain = 0
KCO1 240802Z 09006KT 21/18 A2998 RMK A01 T02120184  RH  084%=      5-min Rain = 0
KCO1 240803Z 09006KT 21/18 A2998 RMK A01 T02110184  RH  084%=      5-min Rain = 0
KCO1 240804Z 09006KT 21/18 A2998 RMK A01 T02110183  RH  084%=      5-min Rain = 0
KCO1 240805Z 10006KT 21/18 A2998 RMK A01 T02110183  RH  084%=      5-min Rain = 0
KCO1 240806Z 10006KT 21/18 A2998 RMK A01 T02110183  RH  084%=      5-min Rain = 0
KCO1 240807Z 10006KT 21/18 A2998 RMK A01 T02110182  RH  083%=      5-min Rain = 0
KCO1 240808Z 10006KT 21/18 A2998 RMK A01 T02110182  RH  083%=      5-min Rain = 0
KCO1 240809Z 10006KT 21/18 A2998 RMK A01 T02110182  RH  083%=      5-min Rain = 0
KCO1 240810Z 10006KT 21/18 A2998 RMK A01 T02110181  RH  083%=      5-min Rain = 0
KCO1 240811Z 10006KT 21/18 A2998 RMK A01 T02110181  RH  083%=      5-min Rain = 0
KCO1 240812Z 10007KT 21/18 A2998 RMK A01 T02110181  RH  083%=      5-min Rain = 0
KCO1 240813Z 10006KT 21/18 A2998 RMK A01 T02110181  RH  083%=      5-min Rain = 0
KCO1 240814Z 10007KT 21/18 A2998 RMK A01 T02110180  RH  083%=      5-min Rain = 0
KCO1 240815Z 10007KT 21/18 A2998 RMK A01 T02110180  RH  083%=      5-min Rain = 0
KCO1 240816Z 10007KT 21/18 A2998 RMK A01 T02110180  RH  082%=      5-min Rain = 0
KCO1 240817Z 10006KT 21/18 A2998 RMK A01 T02110180  RH  082%=      5-min Rain = 0
KCO1 240818Z 10007KT 21/18 A2998 RMK A01 T02110180  RH  082%=      5-min Rain = 0
KCO1 240819Z 10006KT 21/18 A2998 RMK A01 T02110179  RH  082%=      5-min Rain = 0
KCO1 240820Z 10006KT 21/18 A2998 RMK A01 T02110179  RH  082%=      5-min Rain = 0
KCO1 240821Z 10006KT 21/18 A2998 RMK A01 T02110180  RH  082%=      5-min Rain = 0
KCO1 240822Z 10005KT 21/18 A2998 RMK A01 T02100180  RH  083%=      5-min Rain = 0
KCO1 240823Z 10005KT 21/18 A2997 RMK A01 T02100180  RH  083%=      5-min Rain = 0
KCO1 240824Z 10005KT 21/18 A2997 RMK A01 T02100179  RH  083%=      5-min Rain = 0
KCO1 240825Z 10005KT 21/18 A2997 RMK A01 T02100179  RH  083%=      5-min Rain = 0
KCO1 240826Z 10005KT 21/18 A2997 RMK A01 T02100179  RH  083%=      5-min Rain = 0
KCO1 240827Z 10004KT 21/18 A2997 RMK A01 T02100179  RH  083%=      5-min Rain = 0
KCO1 240828Z 10004KT 21/18 A2997 RMK A01 T02100179  RH  082%=      5-min Rain = 0
KCO1 240829Z 10004KT 21/18 A2998 RMK A01 T02100179  RH  082%=      5-min Rain = 0
KCO1 240830Z 10004KT 21/18 A2998 RMK A01 T02100179  RH  082%=      5-min Rain = 0
KCO1 240831Z 10004KT 21/18 A2998 RMK A01 T02100179  RH  082%=      5-min Rain = 0
KCO1 240832Z 10005KT 21/18 A2998 RMK A01 T02100178  RH  082%=      5-min Rain = 0
KCO1 240833Z 10004KT 21/18 A2998 RMK A01 T02100178  RH  082%=      5-min Rain = 0
KCO1 240834Z 09004KT 21/18 A2998 RMK A01 T02100179  RH  082%=      5-min Rain = 0
KCO1 240835Z 09004KT 21/18 A2998 RMK A01 T02100178  RH  082%=      5-min Rain = 0
KCO1 240836Z 09005KT 21/18 A2998 RMK A01 T02100179  RH  082%=      5-min Rain = 0
KCO1 240837Z 09005KT 21/18 A2998 RMK A01 T02100179  RH  082%=      5-min Rain = 0
KCO1 240838Z 09005KT 21/18 A2998 RMK A01 T02100179  RH  082%=      5-min Rain = 0
KCO1 240839Z 09006KT 21/18 A2998 RMK A01 T02100179  RH  082%=      5-min Rain = 0
KCO1 240840Z 08006KT 21/18 A2997 RMK A01 T02100179  RH  082%=      5-min Rain = 0
KCO1 240841Z 08006KT 21/18 A2997 RMK A01 T02100179  RH  082%=      5-min Rain = 0
KCO1 240842Z 09005KT 21/18 A2997 RMK A01 T02100180  RH  083%=      5-min Rain = 0
KCO1 240843Z 09005KT 21/18 A2997 RMK A01 T02100180  RH  083%=      5-min Rain = 0
KCO1 240844Z 09005KT 21/18 A2997 RMK A01 T02090180  RH  083%=      5-min Rain = 0
KCO1 240845Z 09005KT 21/18 A2997 RMK A01 T02090179  RH  083%=      5-min Rain = 0
KCO1 240846Z 09006KT 21/18 A2997 RMK A01 T02090179  RH  083%=      5-min Rain = 0
KCO1 240847Z 09006KT 21/18 A2997 RMK A01 T02090179  RH  083%=      5-min Rain = 0
KCO1 240848Z 09006KT 21/18 A2997 RMK A01 T02090179  RH  083%=      5-min Rain = 0
KCO1 240849Z 10006KT 21/18 A2997 RMK A01 T02080179  RH  083%=      5-min Rain = 0
KCO1 240850Z 10006KT 21/18 A2997 RMK A01 T02080179  RH  083%=      5-min Rain = 0
KCO1 240851Z 10006KT 21/18 A2997 RMK A01 T02080179  RH  083%=      5-min Rain = 0
KCO1 240852Z 10006KT 21/18 A2997 RMK A01 T02080179  RH  083%=      5-min Rain = 0
KCO1 240853Z 10005KT 21/18 A2997 RMK A01 T02080179  RH  083%=      5-min Rain = 0
KCO1 240854Z 10006KT 21/18 A2997 RMK A01 T02080179  RH  083%=      5-min Rain = 0
KCO1 240855Z 10006KT 21/18 A2997 RMK A01 T02080179  RH  083%=      5-min Rain = 0
KCO1 240856Z 10006KT 21/18 A2997 RMK A01 T02080178  RH  083%=      5-min Rain = 0
KCO1 240857Z 10005KT 21/18 A2997 RMK A01 T02080178  RH  083%=      5-min Rain = 0
KCO1 240858Z 11005KT 21/18 A2997 RMK A01 T02080178  RH  083%=      5-min Rain = 0
KCO1 240859Z 11005KT 21/18 A2997 RMK A01 T02080178  RH  083%=      5-min Rain = 0
KCO1 240900Z 10005KT 21/18 A2997 RMK A01 T02080178  RH  083%=      5-min Rain = 0
KCO1 240901Z 10005KT 21/18 A2997 RMK A01 T02080179  RH  083%=      5-min Rain = 0
KCO1 240902Z 10005KT 21/18 A2997 RMK A01 T02070178  RH  083%=      5-min Rain = 0
KCO1 240903Z 10005KT 21/18 A2997 RMK A01 T02080178  RH  083%=      5-min Rain = 0
KCO1 240904Z 10006KT 21/18 A2997 RMK A01 T02070178  RH  083%=      5-min Rain = 0
KCO1 240905Z 10006KT 21/18 A2997 RMK A01 T02080179  RH  083%=      5-min Rain = 0
KCO1 240906Z 10006KT 21/18 A2997 RMK A01 T02070178  RH  084%=      5-min Rain = 0
KCO1 240907Z 10007KT 21/18 A2997 RMK A01 T02070178  RH  084%=      5-min Rain = 0
KCO1 240908Z 10007KT 21/18 A2996 RMK A01 T02070178  RH  084%=      5-min Rain = 0
KCO1 240909Z 10007KT 21/18 A2996 RMK A01 T02070178  RH  084%=      5-min Rain = 0
KCO1 240910Z 10007KT 21/18 A2996 RMK A01 T02070178  RH  084%=      5-min Rain = 0
KCO1 240911Z 10007KT 21/18 A2996 RMK A01 T02060178  RH  084%=      5-min Rain = 0
KCO1 240912Z 10007KT 21/18 A2996 RMK A01 T02060178  RH  084%=      5-min Rain = 0
KCO1 240913Z 10007KT 21/18 A2997 RMK A01 T02060178  RH  084%=      5-min Rain = 0
KCO1 240914Z 10007KT 21/18 A2997 RMK A01 T02060178  RH  084%=      5-min Rain = 0
KCO1 240915Z 10007KT 21/18 A2997 RMK A01 T02060178  RH  084%=      5-min Rain = 0
KCO1 240916Z 10007KT 21/18 A2997 RMK A01 T02060178  RH  084%=      5-min Rain = 0
KCO1 240917Z 10007KT 21/18 A2996 RMK A01 T02060178  RH  084%=      5-min Rain = 0
KCO1 240918Z 10007KT 21/18 A2996 RMK A01 T02060178  RH  084%=      5-min Rain = 0
KCO1 240919Z 10007KT 21/18 A2996 RMK A01 T02050177  RH  084%=      5-min Rain = 0
KCO1 240920Z 10008KT 21/18 A2996 RMK A01 T02060177  RH  084%=      5-min Rain = 0
KCO1 240921Z 10008KT 21/18 A2996 RMK A01 T02060178  RH  084%=      5-min Rain = 0
KCO1 240922Z 10008KT 21/18 A2996 RMK A01 T02060177  RH  084%=      5-min Rain = 0
KCO1 240923Z 10007KT 21/18 A2996 RMK A01 T02060177  RH  084%=      5-min Rain = 0
KCO1 240924Z 09007KT 21/18 A2996 RMK A01 T02060177  RH  083%=      5-min Rain = 0
KCO1 240925Z 09007KT 21/18 A2997 RMK A01 T02060177  RH  083%=      5-min Rain = 0
KCO1 240926Z 09007KT 21/18 A2997 RMK A01 T02060177  RH  083%=      5-min Rain = 0
KCO1 240927Z 09006KT 21/18 A2997 RMK A01 T02070177  RH  083%=      5-min Rain = 0
KCO1 240928Z 09007KT 21/18 A2997 RMK A01 T02070177  RH  083%=      5-min Rain = 0
KCO1 240929Z 09007KT 21/18 A2997 RMK A01 T02070177  RH  083%=      5-min Rain = 0
KCO1 240930Z 09006KT 21/18 A2997 RMK A01 T02070177  RH  083%=      5-min Rain = 0
KCO1 240931Z 09006KT 21/18 A2997 RMK A01 T02060176  RH  083%=      5-min Rain = 0
KCO1 240932Z 10006KT 21/18 A2997 RMK A01 T02060176  RH  083%=      5-min Rain = 0
KCO1 240933Z 10006KT 21/18 A2997 RMK A01 T02060176  RH  083%=      5-min Rain = 0
KCO1 240934Z 10006KT 21/18 A2997 RMK A01 T02060176  RH  083%=      5-min Rain = 0
KCO1 240935Z 10007KT 21/18 A2997 RMK A01 T02050176  RH  083%=      5-min Rain = 0
KCO1 240936Z 10007KT 21/18 A2997 RMK A01 T02050176  RH  083%=      5-min Rain = 0
KCO1 240937Z 10007KT 21/18 A2997 RMK A01 T02050176  RH  083%=      5-min Rain = 0
KCO1 240938Z 10007KT 21/18 A2997 RMK A01 T02050176  RH  083%=      5-min Rain = 0
KCO1 240939Z 10007KT 21/18 A2997 RMK A01 T02060176  RH  083%=      5-min Rain = 0
KCO1 240940Z 10007KT 21/18 A2997 RMK A01 T02060176  RH  083%=      5-min Rain = 0
KCO1 240941Z 10006KT 21/18 A2997 RMK A01 T02060176  RH  083%=      5-min Rain = 0
KCO1 240942Z 10006KT 21/18 A2997 RMK A01 T02060176  RH  083%=      5-min Rain = 0
KCO1 240943Z 10007KT 21/18 A2997 RMK A01 T02060177  RH  083%=      5-min Rain = 0
KCO1 240944Z 10006KT 21/18 A2997 RMK A01 T02060177  RH  083%=      5-min Rain = 0
KCO1 240945Z 10007KT 21/18 A2997 RMK A01 T02060177  RH  083%=      5-min Rain = 0
KCO1 240946Z 11007KT 21/18 A2997 RMK A01 T02060177  RH  083%=      5-min Rain = 0
KCO1 240947Z 11006KT 21/18 A2997 RMK A01 T02070177  RH  083%=      5-min Rain = 0
KCO1 240948Z 11006KT 21/18 A2997 RMK A01 T02070177  RH  083%=      5-min Rain = 0
KCO1 240949Z 11006KT 21/18 A2997 RMK A01 T02070177  RH  083%=      5-min Rain = 0
KCO1 240950Z 11005KT 21/18 A2996 RMK A01 T02070177  RH  083%=      5-min Rain = 0
KCO1 240951Z 11006KT 21/18 A2997 RMK A01 T02070177  RH  083%=      5-min Rain = 0
KCO1 240952Z 10005KT 21/18 A2997 RMK A01 T02070177  RH  083%=      5-min Rain = 0
KCO1 240953Z 10006KT 21/18 A2997 RMK A01 T02070177  RH  083%=      5-min Rain = 0
KCO1 240954Z 10006KT 21/18 A2997 RMK A01 T02070177  RH  083%=      5-min Rain = 0
KCO1 240955Z 11004KT 21/18 A2997 RMK A01 T02070177  RH  083%=      5-min Rain = 0
KCO1 240956Z 11005KT 21/18 A2997 RMK A01 T02070177  RH  083%=      5-min Rain = 0
KCO1 240957Z 10005KT 21/18 A2997 RMK A01 T02070177  RH  083%=      5-min Rain = 0
KCO1 240958Z 11005KT 21/18 A2997 RMK A01 T02070177  RH  083%=      5-min Rain = 0
KCO1 240959Z 11003KT 21/18 A2997 RMK A01 T02070177  RH  083%=      5-min Rain = 0
KCO1 241000Z 11004KT 21/18 A2997 RMK A01 T02070177  RH  083%=      5-min Rain = 0
KCO1 241001Z 11004KT 21/18 A2997 RMK A01 T02070177  RH  083%=      5-min Rain = 0
KCO1 241002Z 10004KT 21/18 A2997 RMK A01 T02070177  RH  083%=      5-min Rain = 0
KCO1 241003Z 10004KT 21/18 A2997 RMK A01 T02070177  RH  083%=      5-min Rain = 0
KCO1 241004Z 10004KT 21/18 A2997 RMK A01 T02070177  RH  083%=      5-min Rain = 0
KCO1 241005Z 10004KT 21/18 A2997 RMK A01 T02070177  RH  083%=      5-min Rain = 0
KCO1 241006Z 10004KT 21/18 A2997 RMK A01 T02060177  RH  083%=      5-min Rain = 0
KCO1 241007Z 09004KT 21/18 A2997 RMK A01 T02070177  RH  083%=      5-min Rain = 0
KCO1 241008Z 09004KT 21/18 A2997 RMK A01 T02060177  RH  083%=      5-min Rain = 0
KCO1 241009Z 10004KT 21/18 A2997 RMK A01 T02060177  RH  084%=      5-min Rain = 0
KCO1 241010Z 10005KT 21/18 A2997 RMK A01 T02050177  RH  084%=      5-min Rain = 0
KCO1 241011Z 09005KT 21/18 A2997 RMK A01 T02050177  RH  084%=      5-min Rain = 0
KCO1 241012Z 09005KT 21/18 A2997 RMK A01 T02050177  RH  084%=      5-min Rain = 0
KCO1 241013Z 09005KT 21/18 A2996 RMK A01 T02050177  RH  084%=      5-min Rain = 0
KCO1 241014Z 09005KT 20/18 A2996 RMK A01 T02040177  RH  084%=      5-min Rain = 0
KCO1 241015Z 09006KT 20/18 A2996 RMK A01 T02040177  RH  085%=      5-min Rain = 0
KCO1 241016Z 09005KT 20/18 A2996 RMK A01 T02040177  RH  085%=      5-min Rain = 0
KCO1 241017Z 10006KT 20/18 A2996 RMK A01 T02040178  RH  085%=      5-min Rain = 0
KCO1 241018Z 10006KT 20/18 A2996 RMK A01 T02030178  RH  085%=      5-min Rain = 0
KCO1 241019Z 09005KT 20/18 A2996 RMK A01 T02030178  RH  085%=      5-min Rain = 0
KCO1 241020Z 10005KT 20/18 A2996 RMK A01 T02030178  RH  085%=      5-min Rain = 0
KCO1 241021Z 10004KT 20/18 A2996 RMK A01 T02030178  RH  085%=      5-min Rain = 0
KCO1 241022Z 10004KT 20/18 A2996 RMK A01 T02030178  RH  085%=      5-min Rain = 0
KCO1 241023Z 10005KT 20/18 A2996 RMK A01 T02030178  RH  085%=      5-min Rain = 0
KCO1 241024Z 10005KT 20/18 A2996 RMK A01 T02030177  RH  085%=      5-min Rain = 0
KCO1 241025Z 10005KT 20/18 A2996 RMK A01 T02030177  RH  085%=      5-min Rain = 0
KCO1 241026Z 10005KT 20/18 A2996 RMK A01 T02030177  RH  085%=      5-min Rain = 0
KCO1 241027Z 10006KT 20/18 A2996 RMK A01 T02030177  RH  085%=      5-min Rain = 0
KCO1 241028Z 10006KT 20/18 A2996 RMK A01 T02030177  RH  085%=      5-min Rain = 0
KCO1 241029Z 10005KT 20/18 A2996 RMK A01 T02030177  RH  085%=      5-min Rain = 0
KCO1 241030Z 10006KT 20/18 A2996 RMK A01 T02030177  RH  085%=      5-min Rain = 0
KCO1 241031Z 11005KT 20/18 A2996 RMK A01 T02040177  RH  085%=      5-min Rain = 0
KCO1 241032Z 11005KT 20/18 A2996 RMK A01 T02030177  RH  085%=      5-min Rain = 0
KCO1 241033Z 10004KT 20/18 A2996 RMK A01 T02030177  RH  085%=      5-min Rain = 0
KCO1 241034Z 11004KT 20/18 A2997 RMK A01 T02030177  RH  085%=      5-min Rain = 0
KCO1 241035Z 11003KT 20/18 A2997 RMK A01 T02030177  RH  085%=      5-min Rain = 0
KCO1 241036Z 11003KT 20/18 A2997 RMK A01 T02030177  RH  085%=      5-min Rain = 0
KCO1 241037Z 12002KT 20/18 A2997 RMK A01 T02030177  RH  085%=      5-min Rain = 0
KCO1 241038Z 12003KT 20/18 A2997 RMK A01 T02030177  RH  085%=      5-min Rain = 0
KCO1 241039Z 11004KT 20/18 A2997 RMK A01 T02030177  RH  085%=      5-min Rain = 0
KCO1 241040Z 11004KT 20/18 A2997 RMK A01 T02030177  RH  085%=      5-min Rain = 0
KCO1 241041Z 11004KT 20/18 A2997 RMK A01 T02020177  RH  086%=      5-min Rain = 0
KCO1 241042Z 11004KT 20/18 A2997 RMK A01 T02020178  RH  086%=      5-min Rain = 0
KCO1 241043Z 11004KT 20/18 A2997 RMK A01 T02020178  RH  086%=      5-min Rain = 0
KCO1 241044Z 11005KT 20/18 A2996 RMK A01 T02010178  RH  086%=      5-min Rain = 0
KCO1 241045Z 11005KT 20/18 A2997 RMK A01 T02010178  RH  086%=      5-min Rain = 0
KCO1 241046Z 10005KT 20/18 A2996 RMK A01 T02010178  RH  087%=      5-min Rain = 0
KCO1 241047Z 10005KT 20/18 A2996 RMK A01 T02010178  RH  087%=      5-min Rain = 0
KCO1 241048Z 10005KT 20/18 A2996 RMK A01 T02010178  RH  087%=      5-min Rain = 0
KCO1 241049Z 10006KT 20/18 A2996 RMK A01 T02010179  RH  087%=      5-min Rain = 0
KCO1 241050Z 10006KT 20/18 A2996 RMK A01 T02010179  RH  087%=      5-min Rain = 0
KCO1 241051Z 10005KT 20/18 A2996 RMK A01 T02010179  RH  087%=      5-min Rain = 0
KCO1 241052Z 09005KT 20/18 A2996 RMK A01 T02010179  RH  087%=      5-min Rain = 0
KCO1 241053Z 10005KT 20/18 A2996 RMK A01 T02000178  RH  087%=      5-min Rain = 0
KCO1 241054Z 10005KT 20/18 A2996 RMK A01 T02000179  RH  087%=      5-min Rain = 0
KCO1 241055Z 10005KT 20/18 A2996 RMK A01 T02000178  RH  088%=      5-min Rain = 0
KCO1 241056Z 10006KT 20/18 A2996 RMK A01 T02000179  RH  088%=      5-min Rain = 0
KCO1 241057Z 10006KT 20/18 A2996 RMK A01 T02000179  RH  088%=      5-min Rain = 0
KCO1 241058Z 11005KT 20/18 A2996 RMK A01 T02000179  RH  088%=      5-min Rain = 0
KCO1 241059Z 11006KT 20/18 A2996 RMK A01 T02000178  RH  088%=      5-min Rain = 0
KCO1 241100Z 11006KT 20/18 A2996 RMK A01 T02000179  RH  088%=      5-min Rain = 0
KCO1 241101Z 11005KT 20/18 A2996 RMK A01 T01990178  RH  088%=      5-min Rain = 0
KCO1 241102Z 11006KT 20/18 A2996 RMK A01 T01990178  RH  088%=      5-min Rain = 0
KCO1 241103Z 11005KT 20/18 A2996 RMK A01 T01990179  RH  088%=      5-min Rain = 0
KCO1 241104Z 12006KT 20/18 A2996 RMK A01 T01990179  RH  088%=      5-min Rain = 0
KCO1 241105Z 11005KT 20/18 A2996 RMK A01 T01990179  RH  088%=      5-min Rain = 0
KCO1 241106Z 11006KT 20/18 A2996 RMK A01 T01990179  RH  088%=      5-min Rain = 0
KCO1 241107Z 12006KT 20/18 A2996 RMK A01 T01990179  RH  088%=      5-min Rain = 0
KCO1 241108Z 12005KT 20/18 A2996 RMK A01 T01990179  RH  088%=      5-min Rain = 0
KCO1 241109Z 11005KT 20/18 A2996 RMK A01 T01990178  RH  088%=      5-min Rain = 0
KCO1 241110Z 11006KT 20/18 A2996 RMK A01 T01990178  RH  088%=      5-min Rain = 0
KCO1 241111Z 12005KT 20/18 A2996 RMK A01 T01990178  RH  088%=      5-min Rain = 0
KCO1 241112Z 11006KT 20/18 A2996 RMK A01 T01990178  RH  088%=      5-min Rain = 0
KCO1 241113Z 11005KT 20/18 A2996 RMK A01 T01990178  RH  087%=      5-min Rain = 0
KCO1 241114Z 11005KT 20/18 A2996 RMK A01 T01990178  RH  087%=      5-min Rain = 0
KCO1 241115Z 12005KT 20/18 A2996 RMK A01 T02000178  RH  087%=      5-min Rain = 0
KCO1 241116Z 11004KT 20/18 A2996 RMK A01 T01990178  RH  087%=      5-min Rain = 0
KCO1 241117Z 11004KT 20/18 A2996 RMK A01 T01990178  RH  087%=      5-min Rain = 0
KCO1 241118Z 11004KT 20/18 A2996 RMK A01 T01990178  RH  088%=      5-min Rain = 0
KCO1 241119Z 12005KT 20/18 A2996 RMK A01 T01990178  RH  088%=      5-min Rain = 0
KCO1 241120Z 12004KT 20/18 A2996 RMK A01 T01990178  RH  088%=      5-min Rain = 0
KCO1 241121Z 12005KT 20/18 A2996 RMK A01 T01990178  RH  088%=      5-min Rain = 0
KCO1 241122Z 12005KT 20/18 A2996 RMK A01 T01990178  RH  088%=      5-min Rain = 0
KCO1 241123Z 12004KT 20/18 A2996 RMK A01 T01990179  RH  088%=      5-min Rain = 0
KCO1 241124Z 12005KT 20/18 A2996 RMK A01 T01990179  RH  088%=      5-min Rain = 0
KCO1 241125Z 12005KT 20/18 A2996 RMK A01 T01990179  RH  088%=      5-min Rain = 0
KCO1 241126Z 12004KT 20/18 A2996 RMK A01 T01990179  RH  088%=      5-min Rain = 0
KCO1 241127Z 12005KT 20/18 A2996 RMK A01 T01990180  RH  089%=      5-min Rain = 0
KCO1 241128Z 12005KT 20/18 A2996 RMK A01 T01990180  RH  089%=      5-min Rain = 0
KCO1 241129Z 12005KT 20/18 A2996 RMK A01 T01990180  RH  089%=      5-min Rain = 0
KCO1 241130Z 12006KT 20/18 A2996 RMK A01 T01990180  RH  089%=      5-min Rain = 0
KCO1 241131Z 12006KT 20/18 A2996 RMK A01 T01990180  RH  089%=      5-min Rain = 0
KCO1 241132Z 12005KT 20/18 A2996 RMK A01 T01990180  RH  089%=      5-min Rain = 0
KCO1 241133Z 12005KT 20/18 A2996 RMK A01 T01990180  RH  089%=      5-min Rain = 0
KCO1 241134Z 11005KT 20/18 A2996 RMK A01 T01990180  RH  089%=      5-min Rain = 0
KCO1 241135Z 11006KT 20/18 A2996 RMK A01 T01990179  RH  089%=      5-min Rain = 0
KCO1 241136Z 11006KT 20/18 A2996 RMK A01 T01990180  RH  089%=      5-min Rain = 0
KCO1 241137Z 11005KT 20/18 A2996 RMK A01 T01990179  RH  088%=      5-min Rain = 0
KCO1 241138Z 11006KT 20/18 A2996 RMK A01 T01990180  RH  088%=      5-min Rain = 0
KCO1 241139Z 12006KT 20/18 A2996 RMK A01 T01990179  RH  088%=      5-min Rain = 0
KCO1 241140Z 12006KT 20/18 A2997 RMK A01 T01990179  RH  088%=      5-min Rain = 0
KCO1 241141Z 12006KT 20/18 A2997 RMK A01 T02000179  RH  088%=      5-min Rain = 0
KCO1 241142Z 11006KT 20/18 A2997 RMK A01 T02000179  RH  088%=      5-min Rain = 0
KCO1 241143Z 11006KT 20/18 A2997 RMK A01 T02000179  RH  088%=      5-min Rain = 0
KCO1 241144Z 12006KT 20/18 A2997 RMK A01 T02000179  RH  088%=      5-min Rain = 0
KCO1 241145Z 12006KT 20/18 A2997 RMK A01 T02000180  RH  088%=      5-min Rain = 0
KCO1 241146Z 12006KT 20/18 A2997 RMK A01 T02000180  RH  088%=      5-min Rain = 0
KCO1 241147Z 11006KT 20/18 A2997 RMK A01 T02000180  RH  088%=      5-min Rain = 0
KCO1 241148Z 12005KT 20/18 A2997 RMK A01 T02000180  RH  088%=      5-min Rain = 0
KCO1 241149Z 12005KT 20/18 A2997 RMK A01 T02000180  RH  088%=      5-min Rain = 0
KCO1 241150Z 12005KT 20/18 A2997 RMK A01 T02000180  RH  088%=      5-min Rain = 0
KCO1 241151Z 12005KT 20/18 A2996 RMK A01 T02000180  RH  088%=      5-min Rain = 0
KCO1 241152Z 12005KT 20/18 A2996 RMK A01 T02000180  RH  089%=      5-min Rain = 0
KCO1 241153Z 12006KT 20/18 A2996 RMK A01 T02000180  RH  089%=      5-min Rain = 0
KCO1 241154Z 12005KT 20/18 A2996 RMK A01 T01990180  RH  089%=      5-min Rain = 0
KCO1 241155Z 12005KT 20/18 A2996 RMK A01 T02000180  RH  089%=      5-min Rain = 0
KCO1 241156Z 12006KT 20/18 A2996 RMK A01 T01990180  RH  089%=      5-min Rain = 0
KCO1 241157Z 12006KT 20/18 A2996 RMK A01 T01990180  RH  089%=      5-min Rain = 0
KCO1 241158Z 12006KT 20/18 A2996 RMK A01 T01990180  RH  089%=      5-min Rain = 0
KCO1 241159Z 12006KT 20/18 A2996 RMK A01 T01990180  RH  089%=      5-min Rain = 0
KCO1 241200Z 12006KT 20/18 A2996 RMK A01 T01990180  RH  089%=      5-min Rain = 0
KCO1 241201Z 12006KT 20/18 A2996 RMK A01 T01990180  RH  089%=      5-min Rain = 0
KCO1 241202Z 12007KT 20/18 A2996 RMK A01 T01990180  RH  089%=      5-min Rain = 0
KCO1 241203Z 12006KT 20/18 A2996 RMK A01 T01990180  RH  089%=      5-min Rain = 0
KCO1 241204Z 12006KT 20/18 A2996 RMK A01 T01990181  RH  089%=      5-min Rain = 0
KCO1 241205Z 11006KT 20/18 A2996 RMK A01 T01990180  RH  089%=      5-min Rain = 0
KCO1 241206Z 11006KT 20/18 A2996 RMK A01 T02000181  RH  089%=      5-min Rain = 0
KCO1 241207Z 11005KT 20/18 A2996 RMK A01 T02000181  RH  089%=      5-min Rain = 0
KCO1 241208Z 11005KT 20/18 A2997 RMK A01 T01990181  RH  089%=      5-min Rain = 0
KCO1 241209Z 11006KT 20/18 A2997 RMK A01 T01990181  RH  089%=      5-min Rain = 0
KCO1 241210Z 11006KT 20/18 A2996 RMK A01 T01990181  RH  089%=      5-min Rain = 0
KCO1 241211Z 10006KT 20/18 A2996 RMK A01 T01990181  RH  089%=      5-min Rain = 0
KCO1 241212Z 11007KT 20/18 A2996 RMK A01 T01990181  RH  089%=      5-min Rain = 0
KCO1 241213Z 11007KT 20/18 A2996 RMK A01 T01990181  RH  089%=      5-min Rain = 0
KCO1 241214Z 10007KT 20/18 A2996 RMK A01 T01990181  RH  089%=      5-min Rain = 0
KCO1 241215Z 10007KT 20/18 A2996 RMK A01 T01990181  RH  089%=      5-min Rain = 0
KCO1 241216Z 11007KT 20/18 A2996 RMK A01 T01990181  RH  089%=      5-min Rain = 0
KCO1 241217Z 11006KT 20/18 A2996 RMK A01 T01990181  RH  089%=      5-min Rain = 0
KCO1 241218Z 11005KT 20/18 A2997 RMK A01 T01990181  RH  089%=      5-min Rain = 0
KCO1 241219Z 12007KT 20/18 A2997 RMK A01 T01990181  RH  089%=      5-min Rain = 0
KCO1 241220Z 11006KT 20/18 A2997 RMK A01 T01990181  RH  089%=      5-min Rain = 0
KCO1 241221Z 11006KT 20/18 A2997 RMK A01 T01990181  RH  089%=      5-min Rain = 0
KCO1 241222Z 11007KT 20/18 A2997 RMK A01 T01990181  RH  089%=      5-min Rain = 0
KCO1 241223Z 11007KT 20/18 A2997 RMK A01 T01990181  RH  090%=      5-min Rain = 0
KCO1 241224Z 10007KT 20/18 A2997 RMK A01 T01990181  RH  090%=      5-min Rain = 0
KCO1 241225Z 10006KT 20/18 A2997 RMK A01 T01990182  RH  090%=      5-min Rain = 0
KCO1 241226Z 11007KT 20/18 A2997 RMK A01 T01990181  RH  090%=      5-min Rain = 0
KCO1 241227Z 11007KT 20/18 A2997 RMK A01 T01990181  RH  089%=      5-min Rain = 0
KCO1 241228Z 11007KT 20/18 A2997 RMK A01 T01990181  RH  089%=      5-min Rain = 0
KCO1 241229Z 11007KT 20/18 A2997 RMK A01 T01990181  RH  089%=      5-min Rain = 0
KCO1 241230Z 11007KT 20/18 A2997 RMK A01 T01990181  RH  089%=      5-min Rain = 0
KCO1 241231Z 11007KT 20/18 A2997 RMK A01 T01990181  RH  089%=      5-min Rain = 0
KCO1 241232Z 11007KT 20/18 A2997 RMK A01 T01990180  RH  089%=      5-min Rain = 0
KCO1 241233Z 11007KT 20/18 A2997 RMK A01 T01990180  RH  089%=      5-min Rain = 0
KCO1 241234Z 11007KT 20/18 A2997 RMK A01 T01990181  RH  089%=      5-min Rain = 0
KCO1 241235Z 11007KT 20/18 A2997 RMK A01 T01990180  RH  089%=      5-min Rain = 0
KCO1 241236Z 11007KT 20/18 A2997 RMK A01 T01990180  RH  089%=      5-min Rain = 0
KCO1 241237Z 11006KT 20/18 A2997 RMK A01 T01990180  RH  089%=      5-min Rain = 0
KCO1 241238Z 11006KT 20/18 A2997 RMK A01 T01990180  RH  089%=      5-min Rain = 0
KCO1 241239Z 11006KT 20/18 A2997 RMK A01 T01990180  RH  089%=      5-min Rain = 0
KCO1 241240Z 11006KT 20/18 A2997 RMK A01 T01990180  RH  089%=      5-min Rain = 0
KCO1 241241Z 11006KT 20/18 A2997 RMK A01 T01990180  RH  089%=      5-min Rain = 0
KCO1 241242Z 11006KT 20/18 A2997 RMK A01 T01990180  RH  089%=      5-min Rain = 0
KCO1 241243Z 11006KT 20/18 A2997 RMK A01 T01990180  RH  089%=      5-min Rain = 0
KCO1 241244Z 11006KT 20/18 A2997 RMK A01 T01990180  RH  089%=      5-min Rain = 0
KCO1 241245Z 11006KT 20/18 A2997 RMK A01 T01990180  RH  089%=      5-min Rain = 0
KCO1 241246Z 11005KT 20/18 A2997 RMK A01 T01990180  RH  089%=      5-min Rain = 0
KCO1 241247Z 11004KT 20/18 A2997 RMK A01 T01990180  RH  089%=      5-min Rain = 0
KCO1 241248Z 11005KT 20/18 A2997 RMK A01 T01990180  RH  089%=      5-min Rain = 0
KCO1 241249Z 10005KT 20/18 A2997 RMK A01 T01990180  RH  089%=      5-min Rain = 0
KCO1 241250Z 10005KT 20/18 A2997 RMK A01 T01990180  RH  089%=      5-min Rain = 0
KCO1 241251Z 10005KT 20/18 A2997 RMK A01 T01990180  RH  089%=      5-min Rain = 0
KCO1 241252Z 10005KT 20/18 A2997 RMK A01 T01980180  RH  089%=      5-min Rain = 0
KCO1 241253Z 10006KT 20/18 A2997 RMK A01 T01980180  RH  089%=      5-min Rain = 0
KCO1 241254Z 10006KT 20/18 A2997 RMK A01 T01980180  RH  089%=      5-min Rain = 0
KCO1 241255Z 10005KT 20/18 A2997 RMK A01 T01980180  RH  089%=      5-min Rain = 0
KCO1 241256Z 10005KT 20/18 A2997 RMK A01 T01980180  RH  089%=      5-min Rain = 0
KCO1 241257Z 10005KT 20/18 A2997 RMK A01 T01980180  RH  089%=      5-min Rain = 0
KCO1 241258Z 10005KT 20/18 A2997 RMK A01 T01990180  RH  089%=      5-min Rain = 0
KCO1 241259Z 10006KT 20/18 A2997 RMK A01 T01990180  RH  089%=      5-min Rain = 0
KCO1 241300Z 10006KT 20/18 A2997 RMK A01 T01990179  RH  089%=      5-min Rain = 0
KCO1 241301Z 11006KT 20/18 A2997 RMK A01 T01990179  RH  088%=      5-min Rain = 0
KCO1 241302Z 11005KT 20/18 A2997 RMK A01 T01990179  RH  088%=      5-min Rain = 0
KCO1 241303Z 11006KT 20/18 A2997 RMK A01 T01990179  RH  088%=      5-min Rain = 0
KCO1 241304Z 11005KT 20/18 A2997 RMK A01 T01990179  RH  088%=      5-min Rain = 0
KCO1 241305Z 10006KT 20/18 A2997 RMK A01 T01990179  RH  088%=      5-min Rain = 0
KCO1 241306Z 10005KT 20/18 A2997 RMK A01 T02000180  RH  088%=      5-min Rain = 0
KCO1 241307Z 10005KT 20/18 A2997 RMK A01 T02000180  RH  088%=      5-min Rain = 0
KCO1 241308Z 10005KT 20/18 A2997 RMK A01 T02000180  RH  088%=      5-min Rain = 0
KCO1 241309Z 10005KT 20/18 A2997 RMK A01 T02010180  RH  088%=      5-min Rain = 0
KCO1 241310Z 10004KT 20/18 A2997 RMK A01 T02010180  RH  088%=      5-min Rain = 0
KCO1 241311Z 09004KT 20/18 A2997 RMK A01 T02020181  RH  088%=      5-min Rain = 0
KCO1 241312Z 09004KT 20/18 A2997 RMK A01 T02020181  RH  087%=      5-min Rain = 0
KCO1 241313Z 09004KT 20/18 A2997 RMK A01 T02030181  RH  087%=      5-min Rain = 0
KCO1 241314Z 10005KT 20/18 A2997 RMK A01 T02030180  RH  087%=      5-min Rain = 0
KCO1 241315Z 10006KT 20/18 A2997 RMK A01 T02040180  RH  086%=      5-min Rain = 0
KCO1 241316Z 10005KT 20/18 A2997 RMK A01 T02040180  RH  086%=      5-min Rain = 0
KCO1 241317Z 10005KT 21/18 A2997 RMK A01 T02050180  RH  086%=      5-min Rain = 0
KCO1 241318Z 10005KT 21/18 A2997 RMK A01 T02050180  RH  086%=      5-min Rain = 0
KCO1 241319Z 11005KT 21/18 A2997 RMK A01 T02050180  RH  086%=      5-min Rain = 0
KCO1 241320Z 11006KT 21/18 A2997 RMK A01 T02050180  RH  085%=      5-min Rain = 0
KCO1 241321Z 11006KT 21/18 A2997 RMK A01 T02060180  RH  085%=      5-min Rain = 0
KCO1 241322Z 11006KT 21/18 A2997 RMK A01 T02060180  RH  085%=      5-min Rain = 0
KCO1 241323Z 11004KT 21/18 A2997 RMK A01 T02070181  RH  085%=      5-min Rain = 0
KCO1 241324Z 11005KT 21/18 A2997 RMK A01 T02070181  RH  085%=      5-min Rain = 0
KCO1 241325Z 11005KT 21/18 A2997 RMK A01 T02080181  RH  085%=      5-min Rain = 0
KCO1 241326Z 11005KT 21/18 A2997 RMK A01 T02090181  RH  084%=      5-min Rain = 0
KCO1 241327Z 11004KT 21/18 A2997 RMK A01 T02090180  RH  084%=      5-min Rain = 0
KCO1 241328Z 11004KT 21/18 A2997 RMK A01 T02090180  RH  083%=      5-min Rain = 0
KCO1 241329Z 11005KT 21/18 A2997 RMK A01 T02100180  RH  083%=      5-min Rain = 0
KCO1 241330Z 10005KT 21/18 A2997 RMK A01 T02100180  RH  083%=      5-min Rain = 0
KCO1 241331Z 10005KT 21/18 A2997 RMK A01 T02110180  RH  083%=      5-min Rain = 0
KCO1 241332Z 10004KT 21/18 A2997 RMK A01 T02110180  RH  083%=      5-min Rain = 0
KCO1 241333Z 10004KT 21/18 A2997 RMK A01 T02120181  RH  083%=      5-min Rain = 0
KCO1 241334Z 11005KT 21/18 A2997 RMK A01 T02130182  RH  082%=      5-min Rain = 0
KCO1 241335Z 11005KT 21/18 A2997 RMK A01 T02130181  RH  082%=      5-min Rain = 0
KCO1 241336Z 11004KT 21/18 A2997 RMK A01 T02130181  RH  082%=      5-min Rain = 0
KCO1 241337Z 11005KT 21/18 A2997 RMK A01 T02140181  RH  081%=      5-min Rain = 0
KCO1 241338Z 12003KT 21/18 A2997 RMK A01 T02140181  RH  081%=      5-min Rain = 0
KCO1 241339Z 11004KT 22/18 A2997 RMK A01 T02150182  RH  081%=      5-min Rain = 0
KCO1 241340Z 12003KT 22/18 A2997 RMK A01 T02160182  RH  081%=      5-min Rain = 0
KCO1 241341Z 12004KT 22/18 A2997 RMK A01 T02170182  RH  080%=      5-min Rain = 0
KCO1 241342Z 12006KT 22/18 A2997 RMK A01 T02180182  RH  080%=      5-min Rain = 0
KCO1 241343Z 11005KT 22/18 A2997 RMK A01 T02180181  RH  080%=      5-min Rain = 0
KCO1 241344Z 11005KT 22/18 A2997 RMK A01 T02180181  RH  080%=      5-min Rain = 0
KCO1 241345Z 11005KT 22/18 A2997 RMK A01 T02180181  RH  079%=      5-min Rain = 0
KCO1 241346Z 12004KT 22/18 A2997 RMK A01 T02180181  RH  080%=      5-min Rain = 0
KCO1 241347Z 12004KT 22/18 A2997 RMK A01 T02190182  RH  080%=      5-min Rain = 0
KCO1 241348Z 12005KT 22/18 A2997 RMK A01 T02190182  RH  079%=      5-min Rain = 0
KCO1 241349Z 12005KT 22/18 A2997 RMK A01 T02190182  RH  080%=      5-min Rain = 0
KCO1 241350Z 12005KT 22/18 A2997 RMK A01 T02190182  RH  080%=      5-min Rain = 0
KCO1 241351Z 11005KT 22/18 A2997 RMK A01 T02190182  RH  079%=      5-min Rain = 0
KCO1 241352Z 12006KT 22/18 A2997 RMK A01 T02200183  RH  080%=      5-min Rain = 0
KCO1 241353Z 12005KT 22/18 A2997 RMK A01 T02210184  RH  079%=      5-min Rain = 0
KCO1 241354Z 12005KT 22/18 A2997 RMK A01 T02220184  RH  079%=      5-min Rain = 0
KCO1 241355Z 12007KT 22/18 A2997 RMK A01 T02220183  RH  079%=      5-min Rain = 0
KCO1 241356Z 12006KT 22/18 A2997 RMK A01 T02220183  RH  078%=      5-min Rain = 0
KCO1 241357Z 12004KT 22/18 A2998 RMK A01 T02220184  RH  079%=      5-min Rain = 0
KCO1 241358Z 12004KT 22/19 A2998 RMK A01 T02230186  RH  079%=      5-min Rain = 0
KCO1 241359Z 12005KT 23/19 A2998 RMK A01 T02250186  RH  079%=      5-min Rain = 0
KCO1 241400Z 12004KT 23/19 A2998 RMK A01 T02260186  RH  078%=      5-min Rain = 0
KCO1 241401Z 12004KT 23/19 A2998 RMK A01 T02270186  RH  078%=      5-min Rain = 0
KCO1 241402Z 12005KT 23/19 A2998 RMK A01 T02280186  RH  077%=      5-min Rain = 0
KCO1 241403Z 13005KT 23/19 A2998 RMK A01 T02280186  RH  077%=      5-min Rain = 0
KCO1 241404Z 12004KT 23/19 A2998 RMK A01 T02290187  RH  077%=      5-min Rain = 0
KCO1 241405Z 13005KT 23/19 A2998 RMK A01 T02290187  RH  077%=      5-min Rain = 0
KCO1 241406Z 13005KT 23/19 A2998 RMK A01 T02300186  RH  077%=      5-min Rain = 0
KCO1 241407Z 13005KT 23/19 A2998 RMK A01 T02300186  RH  076%=      5-min Rain = 0
KCO1 241408Z 13006KT 23/19 A2998 RMK A01 T02310185  RH  075%=      5-min Rain = 0
KCO1 241409Z 12006KT 23/19 A2998 RMK A01 T02310185  RH  075%=      5-min Rain = 0
KCO1 241410Z 12007KT 23/19 A2998 RMK A01 T02310185  RH  075%=      5-min Rain = 0
KCO1 241411Z 13007KT 23/19 A2998 RMK A01 T02310185  RH  075%=      5-min Rain = 0
KCO1 241412Z 12006KT 23/19 A2998 RMK A01 T02320185  RH  075%=      5-min Rain = 0
KCO1 241413Z 12007KT 23/19 A2998 RMK A01 T02330186  RH  075%=      5-min Rain = 0
KCO1 241414Z 12008KT 23/19 A2998 RMK A01 T02330186  RH  075%=      5-min Rain = 0
KCO1 241415Z 12007KT 23/19 A2998 RMK A01 T02340186  RH  074%=      5-min Rain = 0
KCO1 241416Z 13007KT 23/19 A2998 RMK A01 T02340186  RH  074%=      5-min Rain = 0
KCO1 241417Z 13007KT 23/19 A2998 RMK A01 T02340185  RH  074%=      5-min Rain = 0
KCO1 241418Z 13007KT 24/19 A2998 RMK A01 T02350186  RH  074%=      5-min Rain = 0
KCO1 241419Z 13007KT 24/19 A2998 RMK A01 T02360187  RH  074%=      5-min Rain = 0
KCO1 241420Z 13006KT 24/19 A2998 RMK A01 T02370188  RH  074%=      5-min Rain = 0
KCO1 241421Z 13006KT 24/19 A2998 RMK A01 T02380188  RH  074%=      5-min Rain = 0
KCO1 241422Z 13006KT 24/19 A2998 RMK A01 T02390189  RH  073%=      5-min Rain = 0
KCO1 241423Z 13007KT 24/19 A2998 RMK A01 T02400188  RH  073%=      5-min Rain = 0
KCO1 241424Z 13007KT 24/19 A2998 RMK A01 T02400187  RH  072%=      5-min Rain = 0
KCO1 241425Z 13007KT 24/19 A2998 RMK A01 T02400187  RH  072%=      5-min Rain = 0
KCO1 241426Z 13006KT 24/19 A2998 RMK A01 T02400188  RH  072%=      5-min Rain = 0
KCO1 241427Z 14006KT 24/19 A2998 RMK A01 T02400189  RH  073%=      5-min Rain = 0
KCO1 241428Z 13007KT 24/19 A2998 RMK A01 T02420189  RH  072%=      5-min Rain = 0
KCO1 241429Z 15006KT 24/19 A2998 RMK A01 T02430190  RH  072%=      5-min Rain = 0
KCO1 241430Z 14008KT 25/19 A2998 RMK A01 T02450189  RH  071%=      5-min Rain = 0
KCO1 241431Z 14007KT 25/19 A2998 RMK A01 T02450189  RH  071%=      5-min Rain = 0
KCO1 241432Z 14008KT 25/19 A2998 RMK A01 T02460189  RH  071%=      5-min Rain = 0
KCO1 241433Z 14007KT 25/19 A2997 RMK A01 T02460188  RH  070%=      5-min Rain = 0
KCO1 241434Z 13006KT 25/19 A2997 RMK A01 T02460189  RH  070%=      5-min Rain = 0
KCO1 241435Z 15006KT 25/19 A2997 RMK A01 T02480190  RH  071%=      5-min Rain = 0
KCO1 241436Z 16006KT 25/19 A2997 RMK A01 T02490189  RH  069%=      5-min Rain = 0
KCO1 241437Z 15006KT 25/19 A2997 RMK A01 T02490191  RH  070%=      5-min Rain = 0
KCO1 241438Z 14007KT 25/19 A2998 RMK A01 T02500190  RH  069%=      5-min Rain = 0
KCO1 241439Z 15008KT 25/19 A2998 RMK A01 T02510189  RH  069%=      5-min Rain = 0
KCO1 241440Z 14007KT 25/19 A2998 RMK A01 T02510190  RH  069%=      5-min Rain = 0
KCO1 241441Z 14007KT 25/19 A2998 RMK A01 T02510192  RH  070%=      5-min Rain = 0
KCO1 241442Z 14008KT 25/19 A2998 RMK A01 T02520191  RH  069%=      5-min Rain = 0
KCO1 241443Z 14006KT 25/19 A2998 RMK A01 T02520191  RH  069%=      5-min Rain = 0
KCO1 241444Z 14005KT 25/19 A2998 RMK A01 T02520193  RH  070%=      5-min Rain = 0
KCO1 241445Z 13006KT 25/19 A2998 RMK A01 T02540193  RH  069%=      5-min Rain = 0
KCO1 241446Z 15006KT 26/19 A2998 RMK A01 T02550194  RH  069%=      5-min Rain = 0
KCO1 241447Z 15006KT 26/19 A2998 RMK A01 T02560192  RH  068%=      5-min Rain = 0
KCO1 241448Z 13007KT 26/19 A2998 RMK A01 T02570194  RH  068%=      5-min Rain = 0
KCO1 241449Z 13007KT 26/19 A2998 RMK A01 T02570192  RH  068%=      5-min Rain = 0
KCO1 241450Z 13006KT 26/19 A2998 RMK A01 T02570193  RH  068%=      5-min Rain = 0
KCO1 241451Z 14006KT 26/19 A2998 RMK A01 T02570194  RH  068%=      5-min Rain = 0
KCO1 241452Z 13006KT 26/19 A2998 RMK A01 T02580193  RH  067%=      5-min Rain = 0
KCO1 241453Z 14005KT 26/19 A2998 RMK A01 T02580194  RH  068%=      5-min Rain = 0
KCO1 241454Z 12005KT 26/19 A2998 RMK A01 T02590194  RH  067%=      5-min Rain = 0
KCO1 241455Z 14006KT 26/20 A2998 RMK A01 T02610198  RH  068%=      5-min Rain = 0
KCO1 241456Z 14005KT 26/19 A2998 RMK A01 T02620194  RH  066%=      5-min Rain = 0
KCO1 241457Z 13005KT 26/20 A2998 RMK A01 T02630197  RH  067%=      5-min Rain = 0
KCO1 241458Z 14006KT 26/20 A2998 RMK A01 T02640197  RH  066%=      5-min Rain = 0
KCO1 241459Z 15006KT 27/19 A2998 RMK A01 T02650194  RH  065%=      5-min Rain = 0
KCO1 241500Z 15007KT 27/19 A2998 RMK A01 T02650193  RH  065%=      5-min Rain = 0
KCO1 241501Z 14005KT 27/20 A2998 RMK A01 T02650195  RH  065%=      5-min Rain = 0
KCO1 241502Z 13005KT 26/20 A2998 RMK A01 T02640195  RH  066%=      5-min Rain = 0
KCO1 241503Z 14005KT 26/20 A2998 RMK A01 T02640195  RH  066%=      5-min Rain = 0
KCO1 241504Z 14005KT 26/20 A2998 RMK A01 T02640195  RH  066%=      5-min Rain = 0
KCO1 241505Z 14005KT 26/20 A2998 RMK A01 T02640196  RH  066%=      5-min Rain = 0
KCO1 241506Z 14004KT 26/20 A2998 RMK A01 T02640197  RH  067%=      5-min Rain = 0
KCO1 241507Z 14005KT 27/20 A2998 RMK A01 T02650195  RH  066%=      5-min Rain = 0
KCO1 241508Z 17004KT 26/20 A2998 RMK A01 T02640195  RH  066%=      5-min Rain = 0
KCO1 241509Z 16003KT 26/20 A2998 RMK A01 T02640197  RH  067%=      5-min Rain = 0
KCO1 241510Z 17004KT 26/19 A2998 RMK A01 T02640193  RH  065%=      5-min Rain = 0
KCO1 241511Z 17006KT 26/20 A2998 RMK A01 T02640195  RH  066%=      5-min Rain = 0
KCO1 241512Z 17005KT 26/20 A2998 RMK A01 T02630195  RH  066%=      5-min Rain = 0
KCO1 241513Z 17004KT 26/19 A2998 RMK A01 T02630193  RH  065%=      5-min Rain = 0
KCO1 241514Z 14003KT 26/19 A2998 RMK A01 T02630194  RH  066%=      5-min Rain = 0
KCO1 241515Z 13005KT 26/20 A2998 RMK A01 T02630195  RH  066%=      5-min Rain = 0
KCO1 241516Z 14005KT 26/19 A2998 RMK A01 T02620193  RH  066%=      5-min Rain = 0
KCO1 241517Z 13005KT 26/20 A2998 RMK A01 T02620195  RH  067%=      5-min Rain = 0
KCO1 241518Z 12005KT 26/20 A2998 RMK A01 T02620196  RH  067%=      5-min Rain = 0
KCO1 241519Z 12004KT 26/20 A2998 RMK A01 T02630198  RH  068%=      5-min Rain = 0
KCO1 241520Z 13005KT 27/20 A2998 RMK A01 T02650199  RH  067%=      5-min Rain = 0
KCO1 241521Z 13005KT 27/20 A2998 RMK A01 T02670197  RH  065%=      5-min Rain = 0
KCO1 241522Z 13005KT 27/20 A2998 RMK A01 T02690195  RH  064%=      5-min Rain = 0
KCO1 241523Z 14006KT 27/19 A2998 RMK A01 T02690194  RH  063%=      5-min Rain = 0
KCO1 241524Z 14005KT 27/19 A2998 RMK A01 T02700192  RH  062%=      5-min Rain = 0
KCO1 241525Z 13005KT 27/19 A2999 RMK A01 T02700194  RH  063%=      5-min Rain = 0
KCO1 241526Z 14004KT 27/19 A2999 RMK A01 T02700194  RH  063%=      5-min Rain = 0
KCO1 241527Z 17003KT 27/19 A2999 RMK A01 T02720193  RH  062%=      5-min Rain = 0
KCO1 241528Z 17003KT 27/19 A2999 RMK A01 T02720193  RH  062%=      5-min Rain = 0
KCO1 241529Z 18003KT 27/20 A2999 RMK A01 T02720196  RH  063%=      5-min Rain = 0
KCO1 241530Z 15004KT 27/20 A2999 RMK A01 T02730195  RH  062%=      5-min Rain = 0
KCO1 241531Z 15002KT 27/19 A2999 RMK A01 T02740193  RH  061%=      5-min Rain = 0
KCO1 241532Z 18003KT 28/19 A2999 RMK A01 T02750192  RH  061%=      5-min Rain = 0
KCO1 241533Z 19004KT 27/19 A2999 RMK A01 T02740194  RH  062%=      5-min Rain = 0
KCO1 241534Z 18003KT 27/19 A2999 RMK A01 T02730194  RH  062%=      5-min Rain = 0
KCO1 241535Z 15004KT 27/19 A2999 RMK A01 T02730193  RH  062%=      5-min Rain = 0
KCO1 241536Z 15002KT 27/19 A2999 RMK A01 T02730193  RH  061%=      5-min Rain = 0
KCO1 241537Z 17001KT 28/19 A2999 RMK A01 T02750190  RH  060%=      5-min Rain = 0
KCO1 241538Z 18001KT 28/19 A2999 RMK A01 T02760191  RH  060%=      5-min Rain = 0
KCO1 241539Z 14001KT 28/19 A2999 RMK A01 T02760191  RH  060%=      5-min Rain = 0
KCO1 241540Z 17003KT 28/19 A2999 RMK A01 T02770192  RH  060%=      5-min Rain = 0
KCO1 241541Z 15003KT 28/19 A2999 RMK A01 T02770192  RH  060%=      5-min Rain = 0
KCO1 241542Z 15003KT 28/19 A2999 RMK A01 T02770192  RH  060%=      5-min Rain = 0
KCO1 241543Z 16002KT 28/19 A2999 RMK A01 T02770191  RH  059%=      5-min Rain = 0
KCO1 241544Z 14003KT 28/19 A2999 RMK A01 T02770191  RH  059%=      5-min Rain = 0
KCO1 241545Z 13003KT 28/19 A2999 RMK A01 T02770192  RH  060%=      5-min Rain = 0
KCO1 241546Z 15002KT 28/19 A2999 RMK A01 T02770194  RH  060%=      5-min Rain = 0
KCO1 241547Z 15001KT 28/19 A2999 RMK A01 T02780194  RH  060%=      5-min Rain = 0
KCO1 241548Z 16001KT 28/19 A2999 RMK A01 T02790191  RH  059%=      5-min Rain = 0
KCO1 241549Z 13001KT 28/19 A2999 RMK A01 T02800192  RH  059%=      5-min Rain = 0
KCO1 241550Z 12003KT 28/19 A2999 RMK A01 T02810194  RH  059%=      5-min Rain = 0
KCO1 241551Z 12003KT 28/20 A2999 RMK A01 T02810196  RH  060%=      5-min Rain = 0
KCO1 241552Z 12004KT 28/20 A2999 RMK A01 T02820196  RH  059%=      5-min Rain = 0
KCO1 241553Z 13003KT 28/20 A2999 RMK A01 T02830196  RH  059%=      5-min Rain = 0
KCO1 241554Z 11003KT 28/20 A2999 RMK A01 T02840197  RH  059%=      5-min Rain = 0
KCO1 241555Z 11003KT 28/20 A2999 RMK A01 T02840198  RH  060%=      5-min Rain = 0
KCO1 241556Z 13004KT 29/20 A2999 RMK A01 T02850196  RH  059%=      5-min Rain = 0
KCO1 241557Z 10003KT 28/20 A2999 RMK A01 T02840195  RH  058%=      5-min Rain = 0
KCO1 241558Z 12002KT 28/19 A2999 RMK A01 T02840194  RH  058%=      5-min Rain = 0
KCO1 241559Z 12002KT 28/19 A2999 RMK A01 T02830194  RH  058%=      5-min Rain = 0
KCO1 241600Z 12003KT 29/20 A2999 RMK A01 T02850195  RH  058%=      5-min Rain = 0
KCO1 241601Z 16004KT 29/19 A2999 RMK A01 T02870194  RH  057%=      5-min Rain = 0
KCO1 241602Z 19003KT 29/19 A2999 RMK A01 T02870192  RH  057%=      5-min Rain = 0
KCO1 241603Z 18004KT 29/19 A2999 RMK A01 T02860194  RH  057%=      5-min Rain = 0
KCO1 241604Z 18004KT 29/19 A2999 RMK A01 T02860194  RH  057%=      5-min Rain = 0
KCO1 241605Z 16005KT 29/20 A2999 RMK A01 T02860195  RH  058%=      5-min Rain = 0
KCO1 241606Z 16005KT 29/20 A2999 RMK A01 T02860197  RH  059%=      5-min Rain = 0
KCO1 241607Z 18004KT 29/19 A2999 RMK A01 T02870194  RH  057%=      5-min Rain = 0
KCO1 241608Z 20002KT 29/19 A2999 RMK A01 T02860194  RH  058%=      5-min Rain = 0
KCO1 241609Z 14001KT 29/19 A2999 RMK A01 T02850194  RH  058%=      5-min Rain = 0
KCO1 241610Z 15002KT 29/20 A2999 RMK A01 T02850196  RH  059%=      5-min Rain = 0
KCO1 241611Z 18005KT 29/20 A2999 RMK A01 T02860198  RH  059%=      5-min Rain = 0
KCO1 241612Z 19003KT 29/20 A2999 RMK A01 T02870196  RH  058%=      5-min Rain = 0
KCO1 241613Z 23003KT 29/19 A2999 RMK A01 T02870194  RH  057%=      5-min Rain = 0
KCO1 241614Z 20002KT 29/20 A2999 RMK A01 T02860195  RH  058%=      5-min Rain = 0
KCO1 241615Z 13003KT 29/20 A2999 RMK A01 T02860196  RH  058%=      5-min Rain = 0
KCO1 241616Z 12003KT 29/20 A2999 RMK A01 T02890195  RH  057%=      5-min Rain = 0
KCO1 241617Z 16003KT 29/19 A2999 RMK A01 T02910194  RH  056%=      5-min Rain = 0
KCO1 241618Z 16003KT 29/19 A2999 RMK A01 T02920193  RH  055%=      5-min Rain = 0
KCO1 241619Z 12004KT 29/20 A2999 RMK A01 T02940195  RH  055%=      5-min Rain = 0
KCO1 241620Z 15006KT 30/19 A2999 RMK A01 T02950194  RH  055%=      5-min Rain = 0
KCO1 241621Z 16005KT 30/19 A2999 RMK A01 T02950190  RH  053%=      5-min Rain = 0
KCO1 241622Z 15004KT 30/19 A2999 RMK A01 T02950194  RH  055%=      5-min Rain = 0
KCO1 241623Z 16003KT 30/19 A2999 RMK A01 T02950193  RH  054%=      5-min Rain = 0
KCO1 241624Z 17003KT 30/20 A2999 RMK A01 T02960195  RH  055%=      5-min Rain = 0
KCO1 241625Z 20003KT 30/20 A2999 RMK A01 T02970195  RH  054%=      5-min Rain = 0
KCO1 241626Z 17005KT 30/19 A2999 RMK A01 T02970194  RH  054%=      5-min Rain = 0
KCO1 241627Z 18003KT 30/19 A2999 RMK A01 T02960194  RH  054%=      5-min Rain = 0
KCO1 241628Z 20004KT 30/20 A2999 RMK A01 T02960197  RH  055%=      5-min Rain = 0
KCO1 241629Z 17003KT 30/20 A2999 RMK A01 T02960196  RH  055%=      5-min Rain = 0
KCO1 241630Z 16005KT 30/20 A2999 RMK A01 T02970195  RH  054%=      5-min Rain = 0
KCO1 241631Z 17005KT 30/19 A2999 RMK A01 T02980191  RH  053%=      5-min Rain = 0
KCO1 241632Z 17005KT 30/19 A2998 RMK A01 T02960190  RH  053%=      5-min Rain = 0
KCO1 241633Z 17004KT 29/19 A2998 RMK A01 T02930188  RH  053%=      5-min Rain = 0
KCO1 241634Z 17003KT 29/19 A2998 RMK A01 T02910191  RH  055%=      5-min Rain = 0
KCO1 241635Z 17002KT 29/19 A2998 RMK A01 T02910192  RH  055%=      5-min Rain = 0
KCO1 241636Z 15004KT 29/19 A2998 RMK A01 T02920194  RH  056%=      5-min Rain = 0
KCO1 241637Z 11004KT 29/20 A2998 RMK A01 T02940196  RH  056%=      5-min Rain = 0
KCO1 241638Z 11003KT 30/19 A2998 RMK A01 T02950192  RH  054%=      5-min Rain = 0
KCO1 241639Z 14004KT 30/20 A2998 RMK A01 T02960195  RH  055%=      5-min Rain = 0
KCO1 241640Z 15003KT 30/20 A2998 RMK A01 T02970195  RH  054%=      5-min Rain = 0
KCO1 241641Z 13004KT 30/19 A2998 RMK A01 T02970191  RH  053%=      5-min Rain = 0
KCO1 241642Z 15004KT 30/19 A2998 RMK A01 T02960190  RH  053%=      5-min Rain = 0
KCO1 241643Z 14003KT 30/19 A2998 RMK A01 T02950192  RH  054%=      5-min Rain = 0
KCO1 241644Z 16004KT 30/20 A2998 RMK A01 T02960195  RH  055%=      5-min Rain = 0
KCO1 241645Z 17004KT 30/20 A2998 RMK A01 T02980197  RH  055%=      5-min Rain = 0
KCO1 241646Z 16002KT 30/20 A2998 RMK A01 T02980197  RH  055%=      5-min Rain = 0
KCO1 241647Z 10005KT 30/20 A2998 RMK A01 T03000199  RH  055%=      5-min Rain = 0
KCO1 241648Z 10007KT 30/20 A2998 RMK A01 T03000200  RH  055%=      5-min Rain = 0
KCO1 241649Z 09004KT 30/20 A2998 RMK A01 T02990197  RH  054%=      5-min Rain = 0
KCO1 241650Z 07004KT 30/20 A2998 RMK A01 T02980199  RH  055%=      5-min Rain = 0
KCO1 241651Z 07003KT 30/20 A2998 RMK A01 T02980202  RH  056%=      5-min Rain = 0
KCO1 241652Z 20005KT 30/20 A2998 RMK A01 T03000203  RH  056%=      5-min Rain = 0
KCO1 241653Z 17007KT 30/20 A2998 RMK A01 T03000197  RH  054%=      5-min Rain = 0
KCO1 241654Z 17006KT 30/19 A2998 RMK A01 T03000192  RH  053%=      5-min Rain = 0
KCO1 241655Z 19005KT 30/19 A2998 RMK A01 T02980193  RH  053%=      5-min Rain = 0
KCO1 241656Z 19004KT 30/20 A2998 RMK A01 T02970196  RH  054%=      5-min Rain = 0
KCO1 241657Z 17003KT 30/19 A2998 RMK A01 T02970191  RH  053%=      5-min Rain = 0
KCO1 241658Z 15002KT 30/19 A2998 RMK A01 T02970190  RH  053%=      5-min Rain = 0
KCO1 241659Z 17004KT 30/19 A2998 RMK A01 T02970193  RH  054%=      5-min Rain = 0
KCO1 241700Z 16001KT 30/19 A2998 RMK A01 T02990194  RH  053%=      5-min Rain = 0
KCO1 241701Z 06002KT 30/19 A2998 RMK A01 T03000194  RH  053%=      5-min Rain = 0
KCO1 241702Z 15003KT 30/20 A2998 RMK A01 T03010200  RH  055%=      5-min Rain = 0
KCO1 241703Z 16006KT 30/20 A2998 RMK A01 T03000200  RH  055%=      5-min Rain = 0
KCO1 241704Z 15007KT 30/20 A2998 RMK A01 T03000197  RH  054%=      5-min Rain = 0
KCO1 241705Z 15006KT 30/19 A2998 RMK A01 T02990194  RH  053%=      5-min Rain = 0
KCO1 241706Z 12007KT 30/20 A2998 RMK A01 T02970197  RH  055%=      5-min Rain = 0
KCO1 241707Z 13006KT 30/20 A2998 RMK A01 T02970197  RH  055%=      5-min Rain = 0
KCO1 241708Z 11005KT 30/20 A2998 RMK A01 T02970196  RH  055%=      5-min Rain = 0
KCO1 241709Z 12005KT 30/20 A2998 RMK A01 T02970196  RH  054%=      5-min Rain = 0
KCO1 241710Z 12006KT 30/20 A2997 RMK A01 T02980198  RH  055%=      5-min Rain = 0
KCO1 241711Z 14007KT 30/20 A2997 RMK A01 T02980200  RH  055%=      5-min Rain = 0
KCO1 241712Z 13007KT 30/20 A2997 RMK A01 T02990200  RH  055%=      5-min Rain = 0
KCO1 241713Z 14007KT 30/20 A2997 RMK A01 T03000197  RH  054%=      5-min Rain = 0
KCO1 241714Z 12007KT 30/20 A2997 RMK A01 T03000199  RH  055%=      5-min Rain = 0
KCO1 241715Z 12005KT 30/20 A2997 RMK A01 T02990198  RH  055%=      5-min Rain = 0
KCO1 241716Z 11006KT 30/20 A2997 RMK A01 T02980200  RH  056%=      5-min Rain = 0
KCO1 241717Z 10006KT 30/20 A2997 RMK A01 T03000203  RH  056%=      5-min Rain = 0
KCO1 241718Z 10006KT 30/20 A2997 RMK A01 T03010201  RH  055%=      5-min Rain = 0
KCO1 241719Z 10007KT 30/20 A2997 RMK A01 T03030202  RH  055%=      5-min Rain = 0
KCO1 241720Z 09005KT 30/20 A2997 RMK A01 T03030197  RH  053%=      5-min Rain = 0
KCO1 241721Z 10004KT 30/20 A2997 RMK A01 T03020197  RH  053%=      5-min Rain = 0
KCO1 241722Z 11005KT 30/20 A2997 RMK A01 T03020200  RH  055%=      5-min Rain = 0
KCO1 241723Z 11005KT 30/20 A2997 RMK A01 T03030201  RH  054%=      5-min Rain = 0
KCO1 241724Z 09006KT 30/20 A2997 RMK A01 T03040198  RH  053%=      5-min Rain = 0
KCO1 241725Z 10005KT 30/20 A2997 RMK A01 T03040197  RH  053%=      5-min Rain = 0
KCO1 241726Z 09005KT 30/20 A2997 RMK A01 T03030196  RH  053%=      5-min Rain = 0
KCO1 241727Z 10005KT 30/20 A2997 RMK A01 T03020197  RH  053%=      5-min Rain = 0
KCO1 241728Z 09006KT 30/20 A2997 RMK A01 T03020196  RH  053%=      5-min Rain = 0
KCO1 241729Z 11005KT 30/20 A2997 RMK A01 T03010198  RH  054%=      5-min Rain = 0
KCO1 241730Z 11005KT 30/20 A2997 RMK A01 T03010196  RH  053%=      5-min Rain = 0
KCO1 241731Z 11004KT 30/20 A2997 RMK A01 T03010195  RH  053%=      5-min Rain = 0
KCO1 241732Z 11004KT 30/20 A2997 RMK A01 T03000195  RH  053%=      5-min Rain = 0
KCO1 241733Z 13004KT 30/19 A2997 RMK A01 T03010193  RH  053%=      5-min Rain = 0
KCO1 241734Z 13006KT 30/20 A2997 RMK A01 T03010201  RH  055%=      5-min Rain = 0
KCO1 241735Z 13008KT 30/20 A2997 RMK A01 T03040199  RH  054%=      5-min Rain = 0
KCO1 241736Z 11006KT 30/20 A2997 RMK A01 T03040198  RH  053%=      5-min Rain = 0
KCO1 241737Z 10006KT 30/20 A2997 RMK A01 T03040197  RH  053%=      5-min Rain = 0
KCO1 241738Z 10005KT 30/20 A2997 RMK A01 T03040198  RH  053%=      5-min Rain = 0
KCO1 241739Z 11002KT 30/19 A2997 RMK A01 T03030192  RH  051%=      5-min Rain = 0
KCO1 241740Z 17002KT 30/19 A2997 RMK A01 T03020193  RH  052%=      5-min Rain = 0
KCO1 241741Z 16004KT 30/19 A2997 RMK A01 T03030192  RH  052%=      5-min Rain = 0
KCO1 241742Z 11005KT 30/20 A2997 RMK A01 T03030197  RH  053%=      5-min Rain = 0
KCO1 241743Z 09005KT 31/20 A2997 RMK A01 T03060195  RH  052%=      5-min Rain = 0
KCO1 241744Z 10004KT 31/19 A2997 RMK A01 T03070192  RH  050%=      5-min Rain = 0
KCO1 241745Z 10003KT 31/19 A2997 RMK A01 T03070191  RH  050%=      5-min Rain = 0
KCO1 241746Z 09004KT 31/19 A2997 RMK A01 T03060192  RH  051%=      5-min Rain = 0
KCO1 241747Z 11005KT 31/20 A2997 RMK A01 T03060196  RH  052%=      5-min Rain = 0
KCO1 241748Z 14006KT 31/20 A2996 RMK A01 T03070200  RH  053%=      5-min Rain = 0
KCO1 241749Z 12007KT 31/20 A2996 RMK A01 T03080195  RH  051%=      5-min Rain = 0
KCO1 241750Z 10005KT 31/19 A2996 RMK A01 T03070189  RH  049%=      5-min Rain = 0
KCO1 241751Z 09004KT 31/19 A2996 RMK A01 T03050191  RH  051%=      5-min Rain = 0
KCO1 241752Z 11005KT 31/19 A2996 RMK A01 T03050193  RH  051%=      5-min Rain = 0
KCO1 241753Z 12005KT 31/19 A2996 RMK A01 T03070194  RH  051%=      5-min Rain = 0
KCO1 241754Z 12005KT 31/20 A2996 RMK A01 T03070196  RH  051%=      5-min Rain = 0
KCO1 241755Z 12002KT 31/19 A2996 RMK A01 T03080194  RH  051%=      5-min Rain = 0
KCO1 241756Z 15004KT 31/20 A2996 RMK A01 T03100196  RH  051%=      5-min Rain = 0
KCO1 241757Z 14004KT 31/19 A2996 RMK A01 T03110191  RH  049%=      5-min Rain = 0
KCO1 241758Z 12004KT 31/19 A2996 RMK A01 T03110194  RH  050%=      5-min Rain = 0
KCO1 241759Z 13004KT 31/19 A2996 RMK A01 T03120194  RH  050%=      5-min Rain = 0
KCO1 241800Z 13003KT 31/19 A2996 RMK A01 T03120190  RH  048%=      5-min Rain = 0
KCO1 241801Z 13003KT 31/19 A2996 RMK A01 T03100188  RH  048%=      5-min Rain = 0
KCO1 241802Z 13002KT 31/19 A2996 RMK A01 T03100188  RH  048%=      5-min Rain = 0
KCO1 241803Z 11003KT 31/19 A2995 RMK A01 T03100187  RH  048%=      5-min Rain = 0
KCO1 241804Z 15004KT 31/19 A2995 RMK A01 T03100188  RH  048%=      5-min Rain = 0
KCO1 241805Z 13006KT 31/19 A2995 RMK A01 T03090190  RH  049%=      5-min Rain = 0
KCO1 241806Z 13005KT 31/19 A2995 RMK A01 T03090190  RH  049%=      5-min Rain = 0
KCO1 241807Z 13006KT 31/19 A2995 RMK A01 T03080188  RH  049%=      5-min Rain = 0
KCO1 241808Z 12004KT 31/19 A2995 RMK A01 T03090192  RH  050%=      5-min Rain = 0
KCO1 241809Z 14004KT 31/19 A2995 RMK A01 T03100192  RH  050%=      5-min Rain = 0
KCO1 241810Z 14005KT 31/19 A2995 RMK A01 T03100186  RH  048%=      5-min Rain = 0
KCO1 241811Z 15005KT 31/19 A2995 RMK A01 T03100189  RH  049%=      5-min Rain = 0
KCO1 241812Z 14006KT 31/19 A2995 RMK A01 T03100189  RH  049%=      5-min Rain = 0
KCO1 241813Z 14006KT 31/19 A2995 RMK A01 T03100190  RH  049%=      5-min Rain = 0
KCO1 241814Z 12004KT 31/19 A2995 RMK A01 T03100189  RH  048%=      5-min Rain = 0
KCO1 241815Z 08005KT 31/19 A2995 RMK A01 T03100191  RH  049%=      5-min Rain = 0
KCO1 241816Z 10004KT 31/19 A2995 RMK A01 T03100191  RH  049%=      5-min Rain = 0
KCO1 241817Z 11006KT 31/19 A2995 RMK A01 T03100192  RH  050%=      5-min Rain = 0
KCO1 241818Z 12006KT 31/19 A2995 RMK A01 T03100191  RH  049%=      5-min Rain = 0
KCO1 241819Z 11006KT 31/19 A2995 RMK A01 T03110191  RH  049%=      5-min Rain = 0
KCO1 241820Z 10003KT 31/19 A2995 RMK A01 T03110193  RH  049%=      5-min Rain = 0
KCO1 241821Z 13003KT 31/19 A2995 RMK A01 T03120188  RH  048%=      5-min Rain = 0
KCO1 241822Z 12005KT 31/19 A2995 RMK A01 T03120187  RH  047%=      5-min Rain = 0
KCO1 241823Z 14004KT 31/19 A2995 RMK A01 T03110187  RH  047%=      5-min Rain = 0
KCO1 241824Z 13002KT 31/19 A2995 RMK A01 T03110187  RH  048%=      5-min Rain = 0
KCO1 241825Z 12002KT 31/19 A2995 RMK A01 T03110185  RH  047%=      5-min Rain = 0
KCO1 241826Z 13004KT 31/19 A2995 RMK A01 T03120186  RH  047%=      5-min Rain = 0
KCO1 241827Z 14003KT 31/19 A2995 RMK A01 T03120188  RH  048%=      5-min Rain = 0
KCO1 241828Z 13005KT 31/19 A2995 RMK A01 T03130189  RH  048%=      5-min Rain = 0
KCO1 241829Z 13005KT 31/19 A2995 RMK A01 T03140189  RH  048%=      5-min Rain = 0
KCO1 241830Z 11004KT 32/19 A2995 RMK A01 T03160190  RH  047%=      5-min Rain = 0
KCO1 241831Z 12005KT 32/19 A2995 RMK A01 T03170188  RH  046%=      5-min Rain = 0
KCO1 241832Z 10003KT 32/18 A2994 RMK A01 T03170183  RH  045%=      5-min Rain = 0
KCO1 241833Z 10005KT 32/19 A2994 RMK A01 T03160185  RH  046%=      5-min Rain = 0
KCO1 241834Z 10005KT 32/19 A2994 RMK A01 T03170187  RH  046%=      5-min Rain = 0
KCO1 241835Z 08005KT 32/19 A2994 RMK A01 T03160187  RH  046%=      5-min Rain = 0
KCO1 241836Z 07004KT 32/19 A2994 RMK A01 T03150185  RH  046%=      5-min Rain = 0
KCO1 241837Z 06002KT 32/18 A2994 RMK A01 T03150180  RH  045%=      5-min Rain = 0
KCO1 241838Z 08003KT 31/18 A2994 RMK A01 T03130181  RH  045%=      5-min Rain = 0
KCO1 241839Z 11005KT 31/18 A2994 RMK A01 T03130183  RH  046%=      5-min Rain = 0
KCO1 241840Z 11005KT 31/19 A2994 RMK A01 T03130188  RH  047%=      5-min Rain = 0
KCO1 241841Z 11005KT 31/18 A2994 RMK A01 T03130181  RH  045%=      5-min Rain = 0
KCO1 241842Z 10004KT 31/18 A2994 RMK A01 T03130184  RH  046%=      5-min Rain = 0
KCO1 241843Z 09005KT 31/19 A2994 RMK A01 T03130185  RH  047%=      5-min Rain = 0
KCO1 241844Z 08004KT 32/18 A2994 RMK A01 T03150182  RH  045%=      5-min Rain = 0
KCO1 241845Z 10003KT 32/19 A2994 RMK A01 T03160190  RH  047%=      5-min Rain = 0
KCO1 241846Z 14004KT 32/18 A2994 RMK A01 T03190182  RH  044%=      5-min Rain = 0
KCO1 241847Z 14003KT 32/18 A2994 RMK A01 T03190178  RH  043%=      5-min Rain = 0
KCO1 241848Z 14004KT 32/18 A2994 RMK A01 T03180178  RH  043%=      5-min Rain = 0
KCO1 241849Z 14003KT 32/18 A2994 RMK A01 T03170179  RH  044%=      5-min Rain = 0
KCO1 241850Z 11001KT 32/18 A2993 RMK A01 T03180177  RH  043%=      5-min Rain = 0
KCO1 241851Z 14000KT 32/18 A2993 RMK A01 T03200182  RH  044%=      5-min Rain = 0
KCO1 241852Z 12002KT 32/18 A2993 RMK A01 T03210180  RH  043%=      5-min Rain = 0
KCO1 241853Z 09003KT 32/18 A2993 RMK A01 T03230179  RH  042%=      5-min Rain = 0
KCO1 241854Z 11002KT 32/18 A2993 RMK A01 T03230175  RH  041%=      5-min Rain = 0
KCO1 241855Z 09001KT 32/18 A2993 RMK A01 T03220176  RH  042%=      5-min Rain = 0
KCO1 241856Z 08004KT 32/18 A2993 RMK A01 T03220176  RH  042%=      5-min Rain = 0
KCO1 241857Z 09002KT 32/17 A2993 RMK A01 T03200173  RH  041%=      5-min Rain = 0
KCO1 241858Z 09002KT 32/18 A2993 RMK A01 T03190176  RH  042%=      5-min Rain = 0
KCO1 241859Z 06003KT 32/18 A2993 RMK A01 T03210182  RH  044%=      5-min Rain = 0
KCO1 241900Z 09003KT 32/18 A2993 RMK A01 T03220183  RH  044%=      5-min Rain = 0
KCO1 241901Z 12004KT 32/18 A2993 RMK A01 T03240184  RH  044%=      5-min Rain = 0
KCO1 241902Z 13005KT 32/18 A2992 RMK A01 T03230183  RH  044%=      5-min Rain = 0
KCO1 241903Z 13004KT 32/19 A2992 RMK A01 T03220185  RH  044%=      5-min Rain = 0
KCO1 241904Z 12006KT 32/19 A2992 RMK A01 T03220185  RH  044%=      5-min Rain = 0
KCO1 241905Z 13005KT 32/19 A2992 RMK A01 T03220185  RH  044%=      5-min Rain = 0
KCO1 241906Z 12005KT 32/18 A2992 RMK A01 T03220182  RH  043%=      5-min Rain = 0
KCO1 241907Z 13007KT 32/19 A2992 RMK A01 T03220188  RH  045%=      5-min Rain = 0
KCO1 241908Z 14006KT 32/19 A2992 RMK A01 T03240185  RH  044%=      5-min Rain = 0
KCO1 241909Z 15005KT 32/18 A2992 RMK A01 T03240182  RH  043%=      5-min Rain = 0
KCO1 241910Z 15004KT 32/19 A2992 RMK A01 T03230185  RH  044%=      5-min Rain = 0
KCO1 241911Z 14004KT 32/18 A2992 RMK A01 T03240184  RH  043%=      5-min Rain = 0
KCO1 241912Z 13004KT 33/18 A2992 RMK A01 T03250177  RH  041%=      5-min Rain = 0
KCO1 241913Z 12004KT 32/18 A2992 RMK A01 T03240178  RH  042%=      5-min Rain = 0
KCO1 241914Z 13004KT 32/18 A2992 RMK A01 T03230176  RH  042%=      5-min Rain = 0
KCO1 241915Z 13002KT 32/18 A2992 RMK A01 T03220175  RH  042%=      5-min Rain = 0
KCO1 241916Z 14004KT 32/18 A2992 RMK A01 T03210179  RH  043%=      5-min Rain = 0
KCO1 241917Z 14004KT 32/18 A2992 RMK A01 T03240181  RH  043%=      5-min Rain = 0
KCO1 241918Z 17003KT 32/18 A2992 RMK A01 T03240178  RH  042%=      5-min Rain = 0
KCO1 241919Z 21002KT 32/18 A2992 RMK A01 T03240178  RH  042%=      5-min Rain = 0
KCO1 241920Z 21002KT 32/18 A2992 RMK A01 T03240177  RH  042%=      5-min Rain = 0
KCO1 241921Z 14001KT 32/18 A2992 RMK A01 T03230175  RH  041%=      5-min Rain = 0
KCO1 241922Z 14003KT 32/18 A2992 RMK A01 T03240179  RH  042%=      5-min Rain = 0
KCO1 241923Z 15004KT 33/18 A2991 RMK A01 T03250182  RH  043%=      5-min Rain = 0
KCO1 241924Z 14005KT 33/18 A2991 RMK A01 T03270181  RH  042%=      5-min Rain = 0
KCO1 241925Z 14005KT 33/18 A2991 RMK A01 T03270182  RH  042%=      5-min Rain = 0
KCO1 241926Z 14005KT 33/18 A2991 RMK A01 T03260181  RH  042%=      5-min Rain = 0
KCO1 241927Z 13003KT 32/18 A2991 RMK A01 T03240178  RH  042%=      5-min Rain = 0
KCO1 241928Z 23001KT 32/18 A2991 RMK A01 T03230176  RH  041%=      5-min Rain = 0
KCO1 241929Z 17002KT 32/18 A2991 RMK A01 T03240180  RH  042%=      5-min Rain = 0
KCO1 241930Z 13004KT 33/18 A2991 RMK A01 T03250181  RH  042%=      5-min Rain = 0
KCO1 241931Z 12005KT 33/19 A2991 RMK A01 T03260186  RH  043%=      5-min Rain = 0
KCO1 241932Z 13004KT 33/18 A2991 RMK A01 T03270181  RH  042%=      5-min Rain = 0
KCO1 241933Z 15005KT 33/18 A2991 RMK A01 T03270181  RH  042%=      5-min Rain = 0
KCO1 241934Z 14003KT 33/18 A2991 RMK A01 T03260178  RH  041%=      5-min Rain = 0
KCO1 241935Z 15003KT 33/18 A2991 RMK A01 T03250178  RH  041%=      5-min Rain = 0
KCO1 241936Z 18002KT 33/18 A2991 RMK A01 T03250176  RH  041%=      5-min Rain = 0
KCO1 241937Z 16002KT 33/18 A2991 RMK A01 T03250179  RH  042%=      5-min Rain = 0
KCO1 241938Z 18001KT 33/18 A299 RMK A01 T03260178  RH  041%=      5-min Rain = 0
KCO1 241939Z 16003KT 33/18 A299 RMK A01 T03270178  RH  041%=      5-min Rain = 0
KCO1 241940Z 10003KT 33/18 A299 RMK A01 T03270184  RH  043%=      5-min Rain = 0
KCO1 241941Z 14004KT 33/19 A299 RMK A01 T03280185  RH  043%=      5-min Rain = 0
KCO1 241942Z 12007KT 33/19 A299 RMK A01 T03290189  RH  043%=      5-min Rain = 0
KCO1 241943Z 11006KT 33/19 A299 RMK A01 T03310186  RH  042%=      5-min Rain = 0
KCO1 241944Z 10004KT 33/18 A299 RMK A01 T03300181  RH  041%=      5-min Rain = 0
KCO1 241945Z 09002KT 33/18 A299 RMK A01 T03280177  RH  041%=      5-min Rain = 0
KCO1 241946Z 08000KT 33/18 A299 RMK A01 T03260176  RH  041%=      5-min Rain = 0
KCO1 241947Z 33001KT 33/18 A299 RMK A01 T03270179  RH  042%=      5-min Rain = 0
KCO1 241948Z 06002KT 33/18 A299 RMK A01 T03260184  RH  043%=      5-min Rain = 0
KCO1 241949Z 08003KT 33/18 A299 RMK A01 T03270181  RH  042%=      5-min Rain = 0
KCO1 241950Z 10006KT 33/19 A299 RMK A01 T03280189  RH  044%=      5-min Rain = 0
KCO1 241951Z 09004KT 33/18 A299 RMK A01 T03300182  RH  041%=      5-min Rain = 0
KCO1 241952Z 12004KT 33/18 A299 RMK A01 T03300183  RH  042%=      5-min Rain = 0
KCO1 241953Z 15006KT 33/18 A299 RMK A01 T03300182  RH  042%=      5-min Rain = 0
KCO1 241954Z 14005KT 33/18 A299 RMK A01 T03310183  RH  042%=      5-min Rain = 0
KCO1 241955Z 13003KT 33/18 A299 RMK A01 T03300175  RH  040%=      5-min Rain = 0
KCO1 241956Z 12004KT 33/18 A299 RMK A01 T03280180  RH  042%=      5-min Rain = 0
KCO1 241957Z 10002KT 33/18 A299 RMK A01 T03270175  RH  040%=      5-min Rain = 0
KCO1 241958Z 14001KT 33/17 A299 RMK A01 T03260174  RH  040%=      5-min Rain = 0
KCO1 241959Z 16003KT 33/18 A299 RMK A01 T03260178  RH  041%=      5-min Rain = 0
KCO1 242000Z 16006KT 33/18 A299 RMK A01 T03290181  RH  042%=      5-min Rain = 0
KCO1 242001Z 16005KT 33/18 A299 RMK A01 T03300177  RH  040%=      5-min Rain = 0
KCO1 242002Z 18005KT 33/18 A299 RMK A01 T03290181  RH  041%=      5-min Rain = 0
KCO1 242003Z 13005KT 33/18 A299 RMK A01 T03290180  RH  041%=      5-min Rain = 0
KCO1 242004Z 11003KT 33/18 A299 RMK A01 T03290181  RH  041%=      5-min Rain = 0
KCO1 242005Z 04001KT 33/18 A299 RMK A01 T03290179  RH  041%=      5-min Rain = 0
KCO1 242006Z 05001KT 33/18 A299 RMK A01 T03310179  RH  041%=      5-min Rain = 0
KCO1 242007Z 12002KT 33/18 A299 RMK A01 T03320176  RH  040%=      5-min Rain = 0
KCO1 242008Z 14005KT 33/18 A299 RMK A01 T03330180  RH  040%=      5-min Rain = 0
KCO1 242009Z 14006KT 33/18 A299 RMK A01 T03330179  RH  040%=      5-min Rain = 0
KCO1 242010Z 15007KT 33/18 A299 RMK A01 T03320181  RH  041%=      5-min Rain = 0
KCO1 242011Z 14006KT 33/18 A299 RMK A01 T03300179  RH  041%=      5-min Rain = 0
KCO1 242012Z 14004KT 33/18 A299 RMK A01 T03300176  RH  040%=      5-min Rain = 0
KCO1 242013Z 14003KT 33/17 A299 RMK A01 T03290174  RH  040%=      5-min Rain = 0
KCO1 242014Z 17004KT 33/18 A299 RMK A01 T03290175  RH  040%=      5-min Rain = 0
KCO1 242015Z 17003KT 33/18 A299 RMK A01 T03300177  RH  040%=      5-min Rain = 0
KCO1 242016Z 15002KT 33/17 A299 RMK A01 T03310174  RH  039%=      5-min Rain = 0
KCO1 242017Z 14002KT 33/18 A299 RMK A01 T03330178  RH  040%=      5-min Rain = 0
KCO1 242018Z 09003KT 34/18 A2989 RMK A01 T03360178  RH  039%=      5-min Rain = 0
KCO1 242019Z 13004KT 34/18 A2989 RMK A01 T03370183  RH  040%=      5-min Rain = 0
KCO1 242020Z 15004KT 34/18 A2989 RMK A01 T03380178  RH  039%=      5-min Rain = 0
KCO1 242021Z 13005KT 34/17 A2989 RMK A01 T03390174  RH  038%=      5-min Rain = 0
KCO1 242022Z 14006KT 34/17 A2989 RMK A01 T03370173  RH  038%=      5-min Rain = 0
KCO1 242023Z 13005KT 34/18 A2989 RMK A01 T03350175  RH  039%=      5-min Rain = 0
KCO1 242024Z 15004KT 34/17 A2989 RMK A01 T03350171  RH  038%=      5-min Rain = 0
KCO1 242025Z 13005KT 33/17 A2989 RMK A01 T03340171  RH  038%=      5-min Rain = 0
KCO1 242026Z 13005KT 33/17 A2989 RMK A01 T03330170  RH  038%=      5-min Rain = 0
KCO1 242027Z 13004KT 33/17 A2989 RMK A01 T03310168  RH  038%=      5-min Rain = 0
KCO1 242028Z 13004KT 33/17 A2989 RMK A01 T03300168  RH  038%=      5-min Rain = 0
KCO1 242029Z 14003KT 33/17 A2989 RMK A01 T03280167  RH  038%=      5-min Rain = 0
KCO1 242030Z 15002KT 33/17 A2989 RMK A01 T03270169  RH  039%=      5-min Rain = 0
KCO1 242031Z 14001KT 33/17 A2989 RMK A01 T03260166  RH  038%=      5-min Rain = 0
KCO1 242032Z 16002KT 33/17 A2989 RMK A01 T03270173  RH  040%=      5-min Rain = 0
KCO1 242033Z 16005KT 33/17 A2989 RMK A01 T03290173  RH  039%=      5-min Rain = 0
KCO1 242034Z 15004KT 33/17 A2989 RMK A01 T03290173  RH  039%=      5-min Rain = 0
KCO1 242035Z 09005KT 33/18 A2989 RMK A01 T03290176  RH  040%=      5-min Rain = 0
KCO1 242036Z 09006KT 33/18 A2989 RMK A01 T03280178  RH  041%=      5-min Rain = 0
KCO1 242037Z 08005KT 33/18 A2989 RMK A01 T03260176  RH  041%=      5-min Rain = 0
KCO1 242038Z 07004KT 33/18 A2988 RMK A01 T03260184  RH  043%=      5-min Rain = 0
KCO1 242039Z 07003KT 33/18 A2988 RMK A01 T03270178  RH  041%=      5-min Rain = 0
KCO1 242040Z 06003KT 33/18 A2988 RMK A01 T03270178  RH  041%=      5-min Rain = 0
KCO1 242041Z 07004KT 33/18 A2988 RMK A01 T03270179  RH  041%=      5-min Rain = 0
KCO1 242042Z 09002KT 33/18 A2988 RMK A01 T03270180  RH  042%=      5-min Rain = 0
KCO1 242043Z 19004KT 33/18 A2988 RMK A01 T03300182  RH  042%=      5-min Rain = 0
KCO1 242044Z 11006KT 33/18 A2988 RMK A01 T03310182  RH  041%=      5-min Rain = 0
KCO1 242045Z 14003KT 33/19 A2988 RMK A01 T03320185  RH  042%=      5-min Rain = 0
KCO1 242046Z 13006KT 33/18 A2988 RMK A01 T03320184  RH  042%=      5-min Rain = 0
KCO1 242047Z 15007KT 33/18 A2988 RMK A01 T03330184  RH  041%=      5-min Rain = 0
KCO1 242048Z 13008KT 33/19 A2988 RMK A01 T03320185  RH  042%=      5-min Rain = 0
KCO1 242049Z 13005KT 33/18 A2988 RMK A01 T03310179  RH  040%=      5-min Rain = 0
KCO1 242050Z 13003KT 33/18 A2988 RMK A01 T03300182  RH  042%=      5-min Rain = 0
KCO1 242051Z 13004KT 33/18 A2988 RMK A01 T03300182  RH  042%=      5-min Rain = 0
KCO1 242052Z 14005KT 33/18 A2987 RMK A01 T03300183  RH  042%=      5-min Rain = 0
KCO1 242053Z 15006KT 33/18 A2987 RMK A01 T03300183  RH  042%=      5-min Rain = 0
KCO1 242054Z 16008KT 33/19 A2987 RMK A01 T03310185  RH  042%=      5-min Rain = 0
KCO1 242055Z 18003KT 33/18 A2987 RMK A01 T03300179  RH  041%=      5-min Rain = 0
KCO1 242056Z 18003KT 33/18 A2987 RMK A01 T03290178  RH  041%=      5-min Rain = 0
KCO1 242057Z 16004KT 33/18 A2987 RMK A01 T03290180  RH  041%=      5-min Rain = 0
KCO1 242058Z 14004KT 33/18 A2987 RMK A01 T03290184  RH  042%=      5-min Rain = 0
KCO1 242059Z 13003KT 33/18 A2987 RMK A01 T03300180  RH  041%=      5-min Rain = 0
KCO1 242100Z 12002KT 33/18 A2987 RMK A01 T03300179  RH  041%=      5-min Rain = 0
KCO1 242101Z 10001KT 33/18 A2987 RMK A01 T03290179  RH  041%=      5-min Rain = 0
KCO1 242102Z 14000KT 33/18 A2987 RMK A01 T03280178  RH  041%=      5-min Rain = 0
KCO1 242103Z 15003KT 33/18 A2987 RMK A01 T03290179  RH  041%=      5-min Rain = 0
KCO1 242104Z 14002KT 33/18 A2987 RMK A01 T03290178  RH  041%=      5-min Rain = 0
KCO1 242105Z 17001KT 33/18 A2987 RMK A01 T03290179  RH  041%=      5-min Rain = 0
KCO1 242106Z 14003KT 33/18 A2987 RMK A01 T03290182  RH  042%=      5-min Rain = 0
KCO1 242107Z 14003KT 33/18 A2987 RMK A01 T03290184  RH  042%=      5-min Rain = 0
KCO1 242108Z 11002KT 33/18 A2987 RMK A01 T03290182  RH  042%=      5-min Rain = 0
KCO1 242109Z 10001KT 33/18 A2987 RMK A01 T03300183  RH  042%=      5-min Rain = 0
KCO1 242110Z 10004KT 33/18 A2987 RMK A01 T03310183  RH  042%=      5-min Rain = 0
KCO1 242111Z 11004KT 33/19 A2987 RMK A01 T03320186  RH  042%=      5-min Rain = 0
KCO1 242112Z 12004KT 33/19 A2987 RMK A01 T03320187  RH  042%=      5-min Rain = 0
KCO1 242113Z 10005KT 33/19 A2987 RMK A01 T03320188  RH  043%=      5-min Rain = 0
KCO1 242114Z 11005KT 33/19 A2987 RMK A01 T03320188  RH  043%=      5-min Rain = 0
KCO1 242115Z 09005KT 33/19 A2987 RMK A01 T03310190  RH  043%=      5-min Rain = 0
KCO1 242116Z 09007KT 33/19 A2987 RMK A01 T03310186  RH  042%=      5-min Rain = 0
KCO1 242117Z 09006KT 33/18 A2987 RMK A01 T03290184  RH  042%=      5-min Rain = 0
KCO1 242118Z 11006KT 33/19 A2987 RMK A01 T03280190  RH  044%=      5-min Rain = 0
KCO1 242119Z 11006KT 33/19 A2987 RMK A01 T03280186  RH  043%=      5-min Rain = 0
KCO1 242120Z 08006KT 33/18 A2987 RMK A01 T03270183  RH  042%=      5-min Rain = 0
KCO1 242121Z 10004KT 33/18 A2987 RMK A01 T03260184  RH  043%=      5-min Rain = 0
KCO1 242122Z 13008KT 33/19 A2987 RMK A01 T03260187  RH  044%=      5-min Rain = 0
KCO1 242123Z 12008KT 33/18 A2987 RMK A01 T03260184  RH  043%=      5-min Rain = 0
KCO1 242124Z 12008KT 33/18 A2987 RMK A01 T03260184  RH  043%=      5-min Rain = 0
KCO1 242125Z 13009KT 33/18 A2987 RMK A01 T03260184  RH  043%=      5-min Rain = 0
KCO1 242126Z 13006KT 33/18 A2987 RMK A01 T03250183  RH  043%=      5-min Rain = 0
KCO1 242127Z 12007KT 32/18 A2987 RMK A01 T03240184  RH  043%=      5-min Rain = 0
KCO1 242128Z 13007KT 32/18 A2987 RMK A01 T03230181  RH  043%=      5-min Rain = 0
KCO1 242129Z 14006KT 32/18 A2987 RMK A01 T03230182  RH  043%=      5-min Rain = 0
KCO1 242130Z 14006KT 32/19 A2987 RMK A01 T03230186  RH  044%=      5-min Rain = 0
KCO1 242131Z 14005KT 33/19 A2987 RMK A01 T03250185  RH  043%=      5-min Rain = 0
KCO1 242132Z 14006KT 33/18 A2987 RMK A01 T03280184  RH  042%=      5-min Rain = 0
KCO1 242133Z 14008KT 33/18 A2987 RMK A01 T03300184  RH  042%=      5-min Rain = 0
KCO1 242134Z 13008KT 33/19 A2987 RMK A01 T03310185  RH  042%=      5-min Rain = 0
KCO1 242135Z 13008KT 33/19 A2987 RMK A01 T03320187  RH  042%=      5-min Rain = 0
KCO1 242136Z 15006KT 33/18 A2987 RMK A01 T03330183  RH  041%=      5-min Rain = 0
KCO1 242137Z 13004KT 33/18 A2986 RMK A01 T03330182  RH  041%=      5-min Rain = 0
KCO1 242138Z 12006KT 33/18 A2986 RMK A01 T03320184  RH  042%=      5-min Rain = 0
KCO1 242139Z 13007KT 33/18 A2986 RMK A01 T03310184  RH  042%=      5-min Rain = 0
KCO1 242140Z 11007KT 33/18 A2986 RMK A01 T03290184  RH  042%=      5-min Rain = 0
KCO1 242141Z 12007KT 33/18 A2986 RMK A01 T03270184  RH  043%=      5-min Rain = 0
KCO1 242142Z 14009KT 33/19 A2986 RMK A01 T03250186  RH  044%=      5-min Rain = 0
KCO1 242143Z 13010KT 32/19 A2986 RMK A01 T03240188  RH  044%=      5-min Rain = 0
KCO1 242144Z 12011KT 32/19 A2986 RMK A01 T03240189  RH  045%=      5-min Rain = 0
KCO1 242145Z 12011KT 32/19 A2986 RMK A01 T03240190  RH  045%=      5-min Rain = 0
KCO1 242146Z 12009KT 32/19 A2986 RMK A01 T03230189  RH  045%=      5-min Rain = 0
KCO1 242147Z 12011KT 32/19 A2986 RMK A01 T03220189  RH  046%=      5-min Rain = 0
KCO1 242148Z 13010KT 32/19 A2986 RMK A01 T03210188  RH  045%=      5-min Rain = 0
KCO1 242149Z 13010KT 32/19 A2986 RMK A01 T03210187  RH  045%=      5-min Rain = 0
KCO1 242150Z 12008KT 32/19 A2986 RMK A01 T03210190  RH  046%=      5-min Rain = 0
KCO1 242151Z 14009KT 32/19 A2985 RMK A01 T03210192  RH  046%=      5-min Rain = 0
KCO1 242152Z 13009KT 32/19 A2985 RMK A01 T03210190  RH  046%=      5-min Rain = 0
KCO1 242153Z 13008KT 32/19 A2985 RMK A01 T03210194  RH  047%=      5-min Rain = 0
KCO1 242154Z 12009KT 32/19 A2985 RMK A01 T03220191  RH  046%=      5-min Rain = 0
KCO1 242155Z 12008KT 32/19 A2985 RMK A01 T03220192  RH  046%=      5-min Rain = 0
KCO1 242156Z 12009KT 32/19 A2985 RMK A01 T03220192  RH  046%=      5-min Rain = 0
KCO1 242157Z 12010KT 32/19 A2985 RMK A01 T03230188  RH  045%=      5-min Rain = 0
KCO1 242158Z 12008KT 32/19 A2985 RMK A01 T03220187  RH  045%=      5-min Rain = 0
KCO1 242159Z 12007KT 32/19 A2985 RMK A01 T03220189  RH  045%=      5-min Rain = 0
KCO1 242200Z 11008KT 32/19 A2985 RMK A01 T03220191  RH  046%=      5-min Rain = 0
KCO1 242201Z 11008KT 32/19 A2985 RMK A01 T03230187  RH  045%=      5-min Rain = 0
KCO1 242202Z 12007KT 32/19 A2985 RMK A01 T03230190  RH  046%=      5-min Rain = 0
KCO1 242203Z 12009KT 32/19 A2985 RMK A01 T03230187  RH  045%=      5-min Rain = 0
KCO1 242204Z 11008KT 32/19 A2985 RMK A01 T03230187  RH  044%=      5-min Rain = 0
KCO1 242205Z 11009KT 32/19 A2985 RMK A01 T03240188  RH  045%=      5-min Rain = 0
KCO1 242206Z 12007KT 32/19 A2985 RMK A01 T03240188  RH  044%=      5-min Rain = 0
KCO1 242207Z 12006KT 33/19 A2985 RMK A01 T03250191  RH  045%=      5-min Rain = 0
KCO1 242208Z 12006KT 33/20 A2985 RMK A01 T03270196  RH  046%=      5-min Rain = 0
KCO1 242209Z 13008KT 33/19 A2984 RMK A01 T03280193  RH  045%=      5-min Rain = 0
KCO1 242210Z 14012KT 33/19 A2984 RMK A01 T03290188  RH  043%=      5-min Rain = 0
KCO1 242211Z 14011KT 33/19 A2984 RMK A01 T03280186  RH  043%=      5-min Rain = 0
KCO1 242212Z 13009KT 33/19 A2984 RMK A01 T03270185  RH  043%=      5-min Rain = 0
KCO1 242213Z 13010KT 33/19 A2984 RMK A01 T03260189  RH  044%=      5-min Rain = 0
KCO1 242214Z 13012KT 33/19 A2984 RMK A01 T03260187  RH  044%=      5-min Rain = 0
KCO1 242215Z 13011KT 33/19 A2985 RMK A01 T03260188  RH  044%=      5-min Rain = 0
KCO1 242216Z 13011KT 33/19 A2984 RMK A01 T03260188  RH  044%=      5-min Rain = 0
KCO1 242217Z 13009KT 33/19 A2985 RMK A01 T03260191  RH  045%=      5-min Rain = 0
KCO1 242218Z 13010KT 33/19 A2985 RMK A01 T03260192  RH  045%=      5-min Rain = 0
KCO1 242219Z 12012KT 33/19 A2985 RMK A01 T03270191  RH  045%=      5-min Rain = 0
KCO1 242220Z 12012KT 33/19 A2985 RMK A01 T03260192  RH  045%=      5-min Rain = 0
KCO1 242221Z 13012KT 33/19 A2985 RMK A01 T03260193  RH  045%=      5-min Rain = 0
KCO1 242222Z 13014KT 33/20 A2985 RMK A01 T03260195  RH  046%=      5-min Rain = 0
KCO1 242223Z 13012KT 32/20 A2985 RMK A01 T03240197  RH  047%=      5-min Rain = 0
KCO1 242224Z 12013KT 32/20 A2985 RMK A01 T03230198  RH  048%=      5-min Rain = 0
KCO1 242225Z 13014KT 32/20 A2985 RMK A01 T03220198  RH  048%=      5-min Rain = 0
KCO1 242226Z 12013KT 32/20 A2985 RMK A01 T03210197  RH  048%=      5-min Rain = 0
KCO1 242227Z 12015KT 32/20 A2985 RMK A01 T03200196  RH  048%=      5-min Rain = 0
KCO1 242228Z 14011KT 32/20 A2985 RMK A01 T03190200  RH  049%=      5-min Rain = 0
KCO1 242229Z 14013KT 32/20 A2985 RMK A01 T03200199  RH  049%=      5-min Rain = 0
KCO1 242230Z 14014KT 32/20 A2985 RMK A01 T03200196  RH  048%=      5-min Rain = 0
KCO1 242231Z 13015KT 32/20 A2985 RMK A01 T03190196  RH  048%=      5-min Rain = 0
KCO1 242232Z 13012KT 32/20 A2986 RMK A01 T03180198  RH  049%=      5-min Rain = 0
KCO1 242233Z 13014KT 32/20 A2986 RMK A01 T03180195  RH  048%=      5-min Rain = 0
KCO1 242234Z 13013KT 32/20 A2986 RMK A01 T03180195  RH  048%=      5-min Rain = 0
KCO1 242235Z 13015KT 32/20 A2986 RMK A01 T03180195  RH  048%=      5-min Rain = 0
KCO1 242236Z 13012KT 32/19 A2986 RMK A01 T03180194  RH  048%=      5-min Rain = 0
KCO1 242237Z 13016KT 32/20 A2985 RMK A01 T03190195  RH  048%=      5-min Rain = 0
KCO1 242238Z 13015KT 32/20 A2986 RMK A01 T03180195  RH  048%=      5-min Rain = 0
KCO1 242239Z 13012KT 32/20 A2986 RMK A01 T03180196  RH  048%=      5-min Rain = 0
KCO1 242240Z 13014KT 32/20 A2986 RMK A01 T03180198  RH  049%=      5-min Rain = 0
KCO1 242241Z 13013KT 32/20 A2986 RMK A01 T03190196  RH  048%=      5-min Rain = 0
KCO1 242242Z 13013KT 32/20 A2986 RMK A01 T03180197  RH  049%=      5-min Rain = 0
KCO1 242243Z 13014KT 32/20 A2986 RMK A01 T03180197  RH  049%=      5-min Rain = 0
KCO1 242244Z 13014KT 32/20 A2986 RMK A01 T03190196  RH  048%=      5-min Rain = 0
KCO1 242245Z 13013KT 32/20 A2986 RMK A01 T03180197  RH  049%=      5-min Rain = 0
KCO1 242246Z 13012KT 32/20 A2986 RMK A01 T03170199  RH  049%=      5-min Rain = 0
KCO1 242247Z 13010KT 32/20 A2986 RMK A01 T03180200  RH  050%=      5-min Rain = 0
KCO1 242248Z 14012KT 32/20 A2986 RMK A01 T03180202  RH  050%=      5-min Rain = 0
KCO1 242249Z 13012KT 32/20 A2986 RMK A01 T03180197  RH  049%=      5-min Rain = 0
KCO1 242250Z 13012KT 32/20 A2986 RMK A01 T03180199  RH  049%=      5-min Rain = 0
KCO1 242251Z 14012KT 32/20 A2986 RMK A01 T03170198  RH  049%=      5-min Rain = 0
KCO1 242252Z 13014KT 32/20 A2986 RMK A01 T03170196  RH  049%=      5-min Rain = 0
KCO1 242253Z 13014KT 32/20 A2986 RMK A01 T03160195  RH  049%=      5-min Rain = 0
KCO1 242254Z 14012KT 32/20 A2986 RMK A01 T03160195  RH  049%=      5-min Rain = 0
KCO1 242255Z 14013KT 32/20 A2986 RMK A01 T03160195  RH  049%=      5-min Rain = 0
KCO1 242256Z 14014KT 32/19 A2986 RMK A01 T03160193  RH  048%=      5-min Rain = 0
KCO1 242257Z 14013KT 32/19 A2986 RMK A01 T03160193  RH  048%=      5-min Rain = 0
KCO1 242258Z 13013KT 32/19 A2986 RMK A01 T03160193  RH  048%=      5-min Rain = 0
KCO1 242259Z 14011KT 32/20 A2986 RMK A01 T03160196  RH  049%=      5-min Rain = 0
KCO1 242300Z 13014KT 32/19 A2986 RMK A01 T03160194  RH  048%=      5-min Rain = 0
KCO1 242301Z 13015KT 32/19 A2986 RMK A01 T03160192  RH  048%=      5-min Rain = 0
KCO1 242302Z 13015KT 32/19 A2986 RMK A01 T03160192  RH  048%=      5-min Rain = 0
KCO1 242303Z 14013KT 32/19 A2986 RMK A01 T03150193  RH  048%=      5-min Rain = 0
KCO1 242304Z 13012KT 32/19 A2986 RMK A01 T03150192  RH  048%=      5-min Rain = 0
KCO1 242305Z 13014KT 32/19 A2986 RMK A01 T03150193  RH  048%=      5-min Rain = 0
KCO1 242306Z 13013KT 32/19 A2986 RMK A01 T03150194  RH  049%=      5-min Rain = 0
KCO1 242307Z 13012KT 32/19 A2986 RMK A01 T03150194  RH  049%=      5-min Rain = 0
KCO1 242308Z 14014KT 31/20 A2986 RMK A01 T03140195  RH  049%=      5-min Rain = 0
KCO1 242309Z 14013KT 31/19 A2986 RMK A01 T03140194  RH  049%=      5-min Rain = 0
KCO1 242310Z 14011KT 31/20 A2986 RMK A01 T03140196  RH  049%=      5-min Rain = 0
KCO1 242311Z 15011KT 32/20 A2986 RMK A01 T03150195  RH  049%=      5-min Rain = 0
KCO1 242312Z 14013KT 32/19 A2986 RMK A01 T03150192  RH  048%=      5-min Rain = 0
KCO1 242313Z 14012KT 32/19 A2986 RMK A01 T03150192  RH  048%=      5-min Rain = 0
KCO1 242314Z 14010KT 31/19 A2986 RMK A01 T03140194  RH  049%=      5-min Rain = 0
KCO1 242315Z 14012KT 31/19 A2986 RMK A01 T03140193  RH  049%=      5-min Rain = 0
KCO1 242316Z 14011KT 31/19 A2986 RMK A01 T03120190  RH  048%=      5-min Rain = 0
KCO1 242317Z 13011KT 31/19 A2986 RMK A01 T03110192  RH  049%=      5-min Rain = 0
KCO1 242318Z 13013KT 31/19 A2986 RMK A01 T03090193  RH  050%=      5-min Rain = 0
KCO1 242319Z 13013KT 31/19 A2986 RMK A01 T03070189  RH  049%=      5-min Rain = 0
KCO1 242320Z 14010KT 31/19 A2986 RMK A01 T03050189  RH  050%=      5-min Rain = 0
KCO1 242321Z 15011KT 30/19 A2986 RMK A01 T03040188  RH  050%=      5-min Rain = 0
KCO1 242322Z 15011G16KT 30/19 A2986 RMK A01 T03020185  RH  049%=      5-min Rain = 0
KCO1 242323Z 15010KT 30/18 A2986 RMK A01 T03010183  RH  049%=      5-min Rain = 0
KCO1 242324Z 14011KT 30/18 A2986 RMK A01 T03010183  RH  049%=      5-min Rain = 0
KCO1 242325Z 15010KT 30/18 A2986 RMK A01 T03000184  RH  050%=      5-min Rain = 0
KCO1 242326Z 15011KT 30/18 A2986 RMK A01 T03000184  RH  050%=      5-min Rain = 0
KCO1 242327Z 14011KT 30/18 A2986 RMK A01 T02990182  RH  050%=      5-min Rain = 0
KCO1 242328Z 14011KT 30/18 A2986 RMK A01 T02990182  RH  050%=      5-min Rain = 0
KCO1 242329Z 14009KT 30/18 A2986 RMK A01 T02980183  RH  050%=      5-min Rain = 0
KCO1 242330Z 14010KT 30/18 A2986 RMK A01 T02980184  RH  050%=      5-min Rain = 0
KCO1 242331Z 15010KT 30/18 A2986 RMK A01 T02970184  RH  051%=      5-min Rain = 0
KCO1 242332Z 14010KT 30/18 A2987 RMK A01 T02970184  RH  051%=      5-min Rain = 0
KCO1 242333Z 15010KT 30/18 A2987 RMK A01 T02960184  RH  051%=      5-min Rain = 0
KCO1 242334Z 15010KT 30/19 A2987 RMK A01 T02970185  RH  051%=      5-min Rain = 0
KCO1 242335Z 15010KT 30/19 A2987 RMK A01 T02960185  RH  051%=      5-min Rain = 0
KCO1 242336Z 14009KT 30/19 A2987 RMK A01 T02960185  RH  051%=      5-min Rain = 0
KCO1 242337Z 15010KT 30/19 A2987 RMK A01 T02960186  RH  052%=      5-min Rain = 0
KCO1 242338Z 14009KT 30/19 A2987 RMK A01 T02960187  RH  052%=      5-min Rain = 0
KCO1 242339Z 14009KT 30/19 A2987 RMK A01 T02970188  RH  052%=      5-min Rain = 0
KCO1 242340Z 14008KT 30/19 A2987 RMK A01 T02980189  RH  052%=      5-min Rain = 0
KCO1 242341Z 14009KT 30/19 A2987 RMK A01 T02980190  RH  052%=      5-min Rain = 0
KCO1 242342Z 14008KT 30/19 A2987 RMK A01 T02980190  RH  052%=      5-min Rain = 0
KCO1 242343Z 14009KT 30/19 A2987 RMK A01 T02980190  RH  052%=      5-min Rain = 0
KCO1 242344Z 14008KT 30/19 A2987 RMK A01 T02980189  RH  052%=      5-min Rain = 0
KCO1 242345Z 15009KT 30/19 A2987 RMK A01 T02980190  RH  052%=      5-min Rain = 0
KCO1 242346Z 14009KT 30/19 A2987 RMK A01 T02980190  RH  052%=      5-min Rain = 0
KCO1 242347Z 15009KT 30/19 A2987 RMK A01 T02980190  RH  052%=      5-min Rain = 0
KCO1 242348Z 15009KT 30/19 A2987 RMK A01 T02970190  RH  053%=      5-min Rain = 0
KCO1 242349Z 15009KT 30/19 A2987 RMK A01 T02970191  RH  053%=      5-min Rain = 0
KCO1 242350Z 15009KT 30/19 A2987 RMK A01 T02970192  RH  053%=      5-min Rain = 0
KCO1 242351Z 15007KT 30/19 A2987 RMK A01 T02970191  RH  053%=      5-min Rain = 0
KCO1 242352Z 15007KT 30/19 A2987 RMK A01 T02960192  RH  054%=      5-min Rain = 0
KCO1 242353Z 14008KT 30/19 A2987 RMK A01 T02950192  RH  054%=      5-min Rain = 0
KCO1 242354Z 14009KT 30/19 A2987 RMK A01 T02950192  RH  054%=      5-min Rain = 0
KCO1 242355Z 14009KT 30/19 A2987 RMK A01 T02950192  RH  054%=      5-min Rain = 0
KCO1 242356Z 14008KT 29/19 A2987 RMK A01 T02940192  RH  054%=      5-min Rain = 0
KCO1 242357Z 14007KT 29/19 A2987 RMK A01 T02940192  RH  054%=      5-min Rain = 0
KCO1 242358Z 14007KT 29/19 A2987 RMK A01 T02940193  RH  054%=      5-min Rain = 0
KCO1 242359Z 14008KT 29/19 A2987 RMK A01 T02930192  RH  054%=      5-min Rain = 0
KCO1 250000Z 14008KT 29/19 A2987 RMK A01 T02930191  RH  054%=      5-min Rain = 0
KCO1 250001Z 15008KT 29/19 A2987 RMK A01 T02930192  RH  055%=      5-min Rain = 0
KCO1 250002Z 15007KT 29/19 A2987 RMK A01 T02920192  RH  055%=      5-min Rain = 0
KCO1 250003Z 15008KT 29/19 A2987 RMK A01 T02920192  RH  055%=      5-min Rain = 0
KCO1 250004Z 15008KT 29/19 A2987 RMK A01 T02910192  RH  055%=      5-min Rain = 0
KCO1 250005Z 15007KT 29/19 A2987 RMK A01 T02910191  RH  055%=      5-min Rain = 0
KCO1 250006Z 14007KT 29/19 A2987 RMK A01 T02910192  RH  055%=      5-min Rain = 0
KCO1 250007Z 14007KT 29/19 A2987 RMK A01 T02900193  RH  056%=      5-min Rain = 0
KCO1 250008Z 15007KT 29/19 A2987 RMK A01 T02890193  RH  056%=      5-min Rain = 0
KCO1 250009Z 15007KT 29/19 A2987 RMK A01 T02890194  RH  057%=      5-min Rain = 0
KCO1 250010Z 15008KT 29/19 A2987 RMK A01 T02880194  RH  057%=      5-min Rain = 0
KCO1 250011Z 14007KT 29/20 A2987 RMK A01 T02880195  RH  057%=      5-min Rain = 0
KCO1 250012Z 14007KT 29/20 A2987 RMK A01 T02870196  RH  058%=      5-min Rain = 0
KCO1 250013Z 14007KT 29/20 A2987 RMK A01 T02860196  RH  058%=      5-min Rain = 0
KCO1 250014Z 15007KT 29/20 A2987 RMK A01 T02860196  RH  058%=      5-min Rain = 0
KCO1 250015Z 14007KT 29/20 A2987 RMK A01 T02860196  RH  058%=      5-min Rain = 0
KCO1 250016Z 14008KT 29/20 A2987 RMK A01 T02850197  RH  059%=      5-min Rain = 0
KCO1 250017Z 14007KT 29/20 A2987 RMK A01 T02850197  RH  059%=      5-min Rain = 0
KCO1 250018Z 14007KT 28/20 A2987 RMK A01 T02840197  RH  059%=      5-min Rain = 0
KCO1 250019Z 14007KT 28/20 A2987 RMK A01 T02830198  RH  060%=      5-min Rain = 0
KCO1 250020Z 14007KT 28/20 A2987 RMK A01 T02830198  RH  060%=      5-min Rain = 0
KCO1 250021Z 14008KT 28/20 A2987 RMK A01 T02830198  RH  060%=      5-min Rain = 0
KCO1 250022Z 14007KT 28/20 A2987 RMK A01 T02830198  RH  060%=      5-min Rain = 0
KCO1 250023Z 14007KT 28/20 A2987 RMK A01 T02820198  RH  060%=      5-min Rain = 0
KCO1 250024Z 14007KT 28/20 A2987 RMK A01 T02820198  RH  060%=      5-min Rain = 0
KCO1 250025Z 14007KT 28/20 A2987 RMK A01 T02820198  RH  060%=      5-min Rain = 0
KCO1 250026Z 14006KT 28/20 A2987 RMK A01 T02820198  RH  060%=      5-min Rain = 0
KCO1 250027Z 13006KT 28/20 A2987 RMK A01 T02810199  RH  061%=      5-min Rain = 0
KCO1 250028Z 13006KT 28/20 A2987 RMK A01 T02800201  RH  062%=      5-min Rain = 0
KCO1 250029Z 13006KT 28/20 A2987 RMK A01 T02790201  RH  062%=      5-min Rain = 0
KCO1 250030Z 14006KT 28/20 A2987 RMK A01 T02790201  RH  063%=      5-min Rain = 0
KCO1 250031Z 13006KT 28/20 A2987 RMK A01 T02780201  RH  063%=      5-min Rain = 0
KCO1 250032Z 14006KT 28/20 A2987 RMK A01 T02780201  RH  063%=      5-min Rain = 0
KCO1 250033Z 14006KT 28/20 A2987 RMK A01 T02780202  RH  063%=      5-min Rain = 0
KCO1 250034Z 13006KT 28/20 A2987 RMK A01 T02770201  RH  063%=      5-min Rain = 0
KCO1 250035Z 14006KT 28/20 A2987 RMK A01 T02770201  RH  063%=      5-min Rain = 0
KCO1 250036Z 14006KT 28/20 A2987 RMK A01 T02770202  RH  064%=      5-min Rain = 0
KCO1 250037Z 13006KT 28/20 A2987 RMK A01 T02760202  RH  064%=      5-min Rain = 0
KCO1 250038Z 13006KT 28/20 A2987 RMK A01 T02760202  RH  064%=      5-min Rain = 0
KCO1 250039Z 13006KT 28/20 A2987 RMK A01 T02750202  RH  064%=      5-min Rain = 0
KCO1 250040Z 13005KT 28/20 A2987 RMK A01 T02750202  RH  064%=      5-min Rain = 0
KCO1 250041Z 13005KT 28/20 A2987 RMK A01 T02750203  RH  065%=      5-min Rain = 0
KCO1 250042Z 13005KT 27/20 A2987 RMK A01 T02740203  RH  065%=      5-min Rain = 0
KCO1 250043Z 13005KT 27/20 A2987 RMK A01 T02740203  RH  065%=      5-min Rain = 0
KCO1 250044Z 13005KT 27/20 A2988 RMK A01 T02730203  RH  066%=      5-min Rain = 0
KCO1 250045Z 13005KT 27/20 A2988 RMK A01 T02720204  RH  066%=      5-min Rain = 0
KCO1 250046Z 13005KT 27/20 A2988 RMK A01 T02720204  RH  066%=      5-min Rain = 0
KCO1 250047Z 13005KT 27/20 A2988 RMK A01 T02710204  RH  067%=      5-min Rain = 0
KCO1 250048Z 13005KT 27/21 A2988 RMK A01 T02710205  RH  067%=      5-min Rain = 0
KCO1 250049Z 13005KT 27/21 A2988 RMK A01 T02700205  RH  067%=      5-min Rain = 0
KCO1 250050Z 13005KT 27/21 A2988 RMK A01 T02700205  RH  068%=      5-min Rain = 0
KCO1 250051Z 13005KT 27/21 A2988 RMK A01 T02690205  RH  068%=      5-min Rain = 0
KCO1 250052Z 13005KT 27/21 A2988 RMK A01 T02690205  RH  068%=      5-min Rain = 0
KCO1 250053Z 13005KT 27/21 A2988 RMK A01 T02690206  RH  068%=      5-min Rain = 0
KCO1 250054Z 14005KT 27/21 A2988 RMK A01 T02680206  RH  069%=      5-min Rain = 0
KCO1 250055Z 14005KT 27/21 A2988 RMK A01 T02680207  RH  069%=      5-min Rain = 0
KCO1 250056Z 13005KT 27/21 A2988 RMK A01 T02670207  RH  069%=      5-min Rain = 0
KCO1 250057Z 13006KT 27/21 A2988 RMK A01 T02670207  RH  069%=      5-min Rain = 0
KCO1 250058Z 13005KT 27/21 A2988 RMK A01 T02670207  RH  070%=      5-min Rain = 0
KCO1 250059Z 13005KT 27/21 A2988 RMK A01 T02670207  RH  070%=      5-min Rain = 0
KCO1 250100Z 13005KT 27/21 A2988 RMK A01 T02660207  RH  070%=      5-min Rain = 0
KCO1 250101Z 13005KT 27/21 A2988 RMK A01 T02660207  RH  070%=      5-min Rain = 0
KCO1 250102Z 13005KT 27/21 A2988 RMK A01 T02660207  RH  070%=      5-min Rain = 0
KCO1 250103Z 14005KT 27/21 A2988 RMK A01 T02660207  RH  070%=      5-min Rain = 0
KCO1 250104Z 14005KT 27/21 A2988 RMK A01 T02660207  RH  070%=      5-min Rain = 0
KCO1 250105Z 14005KT 27/21 A2988 RMK A01 T02660208  RH  070%=      5-min Rain = 0
KCO1 250106Z 13006KT 27/21 A2988 RMK A01 T02650207  RH  071%=      5-min Rain = 0
KCO1 250107Z 14006KT 27/21 A2988 RMK A01 T02650207  RH  070%=      5-min Rain = 0
KCO1 250108Z 14006KT 27/21 A2988 RMK A01 T02650208  RH  071%=      5-min Rain = 0
KCO1 250109Z 14006KT 27/21 A2988 RMK A01 T02650207  RH  071%=      5-min Rain = 0
KCO1 250110Z 14005KT 27/21 A2988 RMK A01 T02650207  RH  070%=      5-min Rain = 0
KCO1 250111Z 14005KT 27/21 A2988 RMK A01 T02650207  RH  071%=      5-min Rain = 0
KCO1 250112Z 14005KT 27/21 A2988 RMK A01 T02650207  RH  071%=      5-min Rain = 0
KCO1 250113Z 14005KT 27/21 A2988 RMK A01 T02650207  RH  070%=      5-min Rain = 0
KCO1 250114Z 14006KT 27/21 A2988 RMK A01 T02650207  RH  070%=      5-min Rain = 0
KCO1 250115Z 14007KT 27/21 A2988 RMK A01 T02650206  RH  070%=      5-min Rain = 0
KCO1 250116Z 14006KT 27/21 A2988 RMK A01 T02650206  RH  070%=      5-min Rain = 0
KCO1 250117Z 14007KT 27/21 A2988 RMK A01 T02660205  RH  069%=      5-min Rain = 0
KCO1 250118Z 14007KT 27/21 A2988 RMK A01 T02660205  RH  069%=      5-min Rain = 0
KCO1 250119Z 14007KT 27/21 A2988 RMK A01 T02670205  RH  069%=      5-min Rain = 0
KCO1 250120Z 14006KT 27/21 A2988 RMK A01 T02670205  RH  069%=      5-min Rain = 0
KCO1 250121Z 14007KT 27/21 A2988 RMK A01 T02670205  RH  069%=      5-min Rain = 0
KCO1 250122Z 14006KT 27/20 A2988 RMK A01 T02680204  RH  068%=      5-min Rain = 0
KCO1 250123Z 14006KT 27/21 A2988 RMK A01 T02680205  RH  069%=      5-min Rain = 0
KCO1 250124Z 13006KT 27/21 A2988 RMK A01 T02680206  RH  069%=      5-min Rain = 0
KCO1 250125Z 13006KT 27/21 A2988 RMK A01 T02670206  RH  069%=      5-min Rain = 0
KCO1 250126Z 14006KT 27/21 A2988 RMK A01 T02670207  RH  069%=      5-min Rain = 0
KCO1 250127Z 14006KT 27/21 A2988 RMK A01 T02670207  RH  070%=      5-min Rain = 0
KCO1 250128Z 13005KT 27/21 A2988 RMK A01 T02660207  RH  070%=      5-min Rain = 0
KCO1 250129Z 14005KT 27/21 A2988 RMK A01 T02660207  RH  070%=      5-min Rain = 0
KCO1 250130Z 14005KT 27/21 A2988 RMK A01 T02660207  RH  070%=      5-min Rain = 0
KCO1 250131Z 14005KT 27/21 A2988 RMK A01 T02650207  RH  070%=      5-min Rain = 0
KCO1 250132Z 14006KT 27/21 A2988 RMK A01 T02650207  RH  070%=      5-min Rain = 0
KCO1 250133Z 14006KT 27/21 A2988 RMK A01 T02650206  RH  070%=      5-min Rain = 0
KCO1 250134Z 14005KT 27/21 A2988 RMK A01 T02650207  RH  070%=      5-min Rain = 0
KCO1 250135Z 14005KT 27/21 A2988 RMK A01 T02650206  RH  070%=      5-min Rain = 0
KCO1 250136Z 14005KT 27/21 A2988 RMK A01 T02650207  RH  070%=      5-min Rain = 0
KCO1 250137Z 14005KT 27/21 A2988 RMK A01 T02650208  RH  071%=      5-min Rain = 0
KCO1 250138Z 14006KT 26/21 A2988 RMK A01 T02640207  RH  071%=      5-min Rain = 0
KCO1 250139Z 14005KT 26/21 A2988 RMK A01 T02640207  RH  071%=      5-min Rain = 0
KCO1 250140Z 14005KT 26/21 A2988 RMK A01 T02640207  RH  071%=      5-min Rain = 0
KCO1 250141Z 14005KT 26/21 A2988 RMK A01 T02640208  RH  071%=      5-min Rain = 0
KCO1 250142Z 14005KT 26/21 A2988 RMK A01 T02640207  RH  071%=      5-min Rain = 0
KCO1 250143Z 14005KT 26/21 A2989 RMK A01 T02630206  RH  071%=      5-min Rain = 0
KCO1 250144Z 14005KT 26/21 A2989 RMK A01 T02640206  RH  071%=      5-min Rain = 0
KCO1 250145Z 14005KT 26/21 A2989 RMK A01 T02640206  RH  071%=      5-min Rain = 0
KCO1 250146Z 14005KT 26/21 A2989 RMK A01 T02640205  RH  070%=      5-min Rain = 0
KCO1 250147Z 14005KT 26/21 A2989 RMK A01 T02640206  RH  070%=      5-min Rain = 0
KCO1 250148Z 14005KT 27/21 A2989 RMK A01 T02650205  RH  070%=      5-min Rain = 0
KCO1 250149Z 14005KT 27/21 A2989 RMK A01 T02650206  RH  070%=      5-min Rain = 0
KCO1 250150Z 14005KT 27/21 A2989 RMK A01 T02650206  RH  070%=      5-min Rain = 0
KCO1 250151Z 14005KT 27/21 A2989 RMK A01 T02650207  RH  070%=      5-min Rain = 0
KCO1 250152Z 14005KT 27/21 A2989 RMK A01 T02650207  RH  070%=      5-min Rain = 0
KCO1 250153Z 14005KT 26/21 A2989 RMK A01 T02640207  RH  071%=      5-min Rain = 0
KCO1 250154Z 14005KT 26/21 A2989 RMK A01 T02640207  RH  071%=      5-min Rain = 0
KCO1 250155Z 13005KT 26/21 A2989 RMK A01 T02640207  RH  071%=      5-min Rain = 0
KCO1 250156Z 13005KT 26/21 A2989 RMK A01 T02630208  RH  071%=      5-min Rain = 0
KCO1 250157Z 13004KT 26/21 A2989 RMK A01 T02630208  RH  072%=      5-min Rain = 0
KCO1 250158Z 13004KT 26/21 A2989 RMK A01 T02620208  RH  072%=      5-min Rain = 0
KCO1 250159Z 13004KT 26/21 A2989 RMK A01 T02620208  RH  072%=      5-min Rain = 0
KCO1 250200Z 13004KT 26/21 A2989 RMK A01 T02610208  RH  072%=      5-min Rain = 0
KCO1 250201Z 13005KT 26/21 A2989 RMK A01 T02610208  RH  073%=      5-min Rain = 0
KCO1 250202Z 13005KT 26/21 A299 RMK A01 T02610208  RH  073%=      5-min Rain = 0
KCO1 250203Z 13005KT 26/21 A299 RMK A01 T02600208  RH  073%=      5-min Rain = 0
KCO1 250204Z 13004KT 26/21 A299 RMK A01 T02600209  RH  073%=      5-min Rain = 0
KCO1 250205Z 13004KT 26/21 A299 RMK A01 T02600209  RH  074%=      5-min Rain = 0
KCO1 250206Z 13004KT 26/21 A299 RMK A01 T02600210  RH  074%=      5-min Rain = 0
KCO1 250207Z 13004KT 26/21 A299 RMK A01 T02590210  RH  074%=      5-min Rain = 0
KCO1 250208Z 13004KT 26/21 A299 RMK A01 T02590211  RH  075%=      5-min Rain = 0
KCO1 250209Z 13004KT 26/21 A299 RMK A01 T02580211  RH  075%=      5-min Rain = 0
KCO1 250210Z 13004KT 26/21 A299 RMK A01 T02580211  RH  075%=      5-min Rain = 0
KCO1 250211Z 13004KT 26/21 A299 RMK A01 T02570211  RH  076%=      5-min Rain = 0
KCO1 250212Z 13003KT 26/21 A299 RMK A01 T02570211  RH  076%=      5-min Rain = 0
KCO1 250213Z 14003KT 26/21 A299 RMK A01 T02570212  RH  076%=      5-min Rain = 0
KCO1 250214Z 14003KT 26/21 A299 RMK A01 T02560212  RH  076%=      5-min Rain = 0
KCO1 250215Z 14003KT 26/21 A299 RMK A01 T02560211  RH  076%=      5-min Rain = 0
KCO1 250216Z 15004KT 26/21 A299 RMK A01 T02560210  RH  076%=      5-min Rain = 0
KCO1 250217Z 15004KT 26/21 A299 RMK A01 T02560210  RH  076%=      5-min Rain = 0
KCO1 250218Z 15004KT 26/21 A299 RMK A01 T02560209  RH  075%=      5-min Rain = 0
KCO1 250219Z 15004KT 26/21 A299 RMK A01 T02570210  RH  075%=      5-min Rain = 0
KCO1 250220Z 15004KT 26/21 A299 RMK A01 T02570209  RH  075%=      5-min Rain = 0
KCO1 250221Z 14004KT 26/21 A299 RMK A01 T02570210  RH  075%=      5-min Rain = 0
KCO1 250222Z 14004KT 26/21 A299 RMK A01 T02570210  RH  075%=      5-min Rain = 0
KCO1 250223Z 14004KT 26/21 A299 RMK A01 T02570211  RH  076%=      5-min Rain = 0
KCO1 250224Z 14005KT 26/21 A299 RMK A01 T02570211  RH  076%=      5-min Rain = 0
KCO1 250225Z 14004KT 26/21 A299 RMK A01 T02570211  RH  076%=      5-min Rain = 0
KCO1 250226Z 13004KT 26/21 A299 RMK A01 T02570211  RH  076%=      5-min Rain = 0
KCO1 250227Z 13005KT 26/21 A299 RMK A01 T02570212  RH  077%=      5-min Rain = 0
KCO1 250228Z 13005KT 26/21 A299 RMK A01 T02560214  RH  077%=      5-min Rain = 0
KCO1 250229Z 13005KT 26/21 A299 RMK A01 T02560213  RH  077%=      5-min Rain = 0
KCO1 250230Z 13005KT 26/21 A299 RMK A01 T02550213  RH  077%=      5-min Rain = 0
KCO1 250231Z 13005KT 26/21 A299 RMK A01 T02550213  RH  078%=      5-min Rain = 0
KCO1 250232Z 13005KT 25/21 A299 RMK A01 T02540213  RH  078%=      5-min Rain = 0
KCO1 250233Z 13005KT 25/21 A299 RMK A01 T02540213  RH  078%=      5-min Rain = 0
KCO1 250234Z 14005KT 25/21 A299 RMK A01 T02540213  RH  078%=      5-min Rain = 0
KCO1 250235Z 14005KT 25/21 A299 RMK A01 T02540213  RH  078%=      5-min Rain = 0
KCO1 250236Z 14004KT 25/21 A299 RMK A01 T02540213  RH  078%=      5-min Rain = 0
KCO1 250237Z 14004KT 25/21 A299 RMK A01 T02540213  RH  078%=      5-min Rain = 0
KCO1 250238Z 14004KT 25/21 A299 RMK A01 T02540213  RH  078%=      5-min Rain = 0
KCO1 250239Z 13003KT 25/21 A299 RMK A01 T02530213  RH  078%=      5-min Rain = 0
KCO1 250240Z 13003KT 25/21 A299 RMK A01 T02530213  RH  079%=      5-min Rain = 0
KCO1 250241Z 13003KT 25/21 A2991 RMK A01 T02530214  RH  079%=      5-min Rain = 0
KCO1 250242Z 13003KT 25/21 A2991 RMK A01 T02530214  RH  079%=      5-min Rain = 0
KCO1 250243Z 13003KT 25/21 A2991 RMK A01 T02530213  RH  079%=      5-min Rain = 0
KCO1 250244Z 13003KT 25/21 A2991 RMK A01 T02530214  RH  079%=      5-min Rain = 0
KCO1 250245Z 13003KT 25/21 A2991 RMK A01 T02530214  RH  079%=      5-min Rain = 0
KCO1 250246Z 13003KT 25/21 A2991 RMK A01 T02530214  RH  079%=      5-min Rain = 0
KCO1 250247Z 14003KT 25/21 A2991 RMK A01 T02530214  RH  079%=      5-min Rain = 0
KCO1 250248Z 14003KT 25/21 A2991 RMK A01 T02530214  RH  079%=      5-min Rain = 0
KCO1 250249Z 14003KT 25/21 A2991 RMK A01 T02530213  RH  078%=      5-min Rain = 0
KCO1 250250Z 14004KT 25/21 A2991 RMK A01 T02530212  RH  078%=      5-min Rain = 0
KCO1 250251Z 14003KT 25/21 A2991 RMK A01 T02530211  RH  078%=      5-min Rain = 0
KCO1 250252Z 14004KT 25/21 A2991 RMK A01 T02540212  RH  078%=      5-min Rain = 0
KCO1 250253Z 15004KT 25/21 A2991 RMK A01 T02540211  RH  077%=      5-min Rain = 0
KCO1 250254Z 14003KT 25/21 A2991 RMK A01 T02540211  RH  077%=      5-min Rain = 0
KCO1 250255Z 15003KT 26/21 A2991 RMK A01 T02550210  RH  076%=      5-min Rain = 0
KCO1 250256Z 14003KT 26/21 A2991 RMK A01 T02560210  RH  076%=      5-min Rain = 0
KCO1 250257Z 14003KT 26/21 A2991 RMK A01 T02560210  RH  076%=      5-min Rain = 0
KCO1 250258Z 14003KT 26/21 A2991 RMK A01 T02560210  RH  076%=      5-min Rain = 0
KCO1 250259Z 13004KT 26/21 A2991 RMK A01 T02560211  RH  076%=      5-min Rain = 0
KCO1 250300Z 13003KT 26/21 A2991 RMK A01 T02560210  RH  075%=      5-min Rain = 0
KCO1 250301Z 13002KT 26/21 A2991 RMK A01 T02570211  RH  075%=      5-min Rain = 0
KCO1 250302Z 12002KT 26/21 A2991 RMK A01 T02570211  RH  076%=      5-min Rain = 0
KCO1 250303Z 11002KT 26/21 A2992 RMK A01 T02570211  RH  076%=      5-min Rain = 0
KCO1 250304Z 10002KT 26/21 A2992 RMK A01 T02570212  RH  076%=      5-min Rain = 0
KCO1 250305Z 10001KT 26/21 A2992 RMK A01 T02570212  RH  076%=      5-min Rain = 0
KCO1 250306Z 08001KT 26/21 A2992 RMK A01 T02570213  RH  077%=      5-min Rain = 0
KCO1 250307Z 07001KT 26/21 A2992 RMK A01 T02570214  RH  077%=      5-min Rain = 0
KCO1 250308Z 08001KT 26/22 A2992 RMK A01 T02570215  RH  077%=      5-min Rain = 0
KCO1 250309Z 09001KT 26/21 A2992 RMK A01 T02560214  RH  077%=      5-min Rain = 0
KCO1 250310Z 09001KT 26/21 A2992 RMK A01 T02560214  RH  077%=      5-min Rain = 0
KCO1 250311Z 10001KT 26/21 A2992 RMK A01 T02560214  RH  078%=      5-min Rain = 0
KCO1 250312Z 10000KT 26/22 A2992 RMK A01 T02560215  RH  078%=      5-min Rain = 0
KCO1 250313Z 05000KT 26/22 A2992 RMK A01 T02560215  RH  078%=      5-min Rain = 0
KCO1 250314Z 05000KT 26/22 A2992 RMK A01 T02560215  RH  078%=      5-min Rain = 0
KCO1 250315Z 03000KT 26/22 A2992 RMK A01 T02560215  RH  078%=      5-min Rain = 0
KCO1 250316Z 00001KT 26/22 A2992 RMK A01 T02560215  RH  078%=      5-min Rain = 0
KCO1 250317Z 33001KT 26/21 A2992 RMK A01 T02560212  RH  077%=      5-min Rain = 0
KCO1 250318Z 32001KT 26/21 A2992 RMK A01 T02560213  RH  077%=      5-min Rain = 0
KCO1 250319Z 32002KT 26/21 A2992 RMK A01 T02560213  RH  077%=      5-min Rain = 0
KCO1 250320Z 31004KT 26/22 A2993 RMK A01 T02570215  RH  078%=      5-min Rain = 0
KCO1 250321Z 31005KT 26/21 A2993 RMK A01 T02570214  RH  077%=      5-min Rain = 0
KCO1 250322Z 30007KT 26/21 A2993 RMK A01 T02560214  RH  077%=      5-min Rain = 0
KCO1 250323Z 31008KT 26/21 A2993 RMK A01 T02560214  RH  078%=      5-min Rain = 0
KCO1 250324Z 31008KT 25/21 A2993 RMK A01 T02540213  RH  078%=      5-min Rain = 0
KCO1 250325Z 31007KT 25/21 A2993 RMK A01 T02540213  RH  078%=      5-min Rain = 0
KCO1 250326Z 31006KT 25/21 A2993 RMK A01 T02530212  RH  078%=      5-min Rain = 0
KCO1 250327Z 32006KT 25/21 A2993 RMK A01 T02540212  RH  078%=      5-min Rain = 0
KCO1 250328Z 32005KT 25/21 A2993 RMK A01 T02540211  RH  077%=      5-min Rain = 0
KCO1 250329Z 33004KT 26/21 A2993 RMK A01 T02560210  RH  076%=      5-min Rain = 0
KCO1 250330Z 31004KT 26/21 A2993 RMK A01 T02570210  RH  075%=      5-min Rain = 0
KCO1 250331Z 31005KT 26/21 A2993 RMK A01 T02570210  RH  075%=      5-min Rain = 0
KCO1 250332Z 31007KT 26/21 A2993 RMK A01 T02570210  RH  075%=      5-min Rain = 0
KCO1 250333Z 29008KT 26/21 A2993 RMK A01 T02580206  RH  073%=      5-min Rain = 0
KCO1 250334Z 30009KT 26/21 A2993 RMK A01 T02600206  RH  072%=      5-min Rain = 0
KCO1 250335Z 30009KT 26/20 A2993 RMK A01 T02630200  RH  068%=      5-min Rain = 0
KCO1 250336Z 30008KT 27/20 A2993 RMK A01 T02680202  RH  067%=      5-min Rain = 0
KCO1 250337Z 30007KT 27/20 A2993 RMK A01 T02700201  RH  066%=      5-min Rain = 0
KCO1 250338Z 29005KT 27/20 A2993 RMK A01 T02710200  RH  065%=      5-min Rain = 0
KCO1 250339Z 30005KT 27/20 A2993 RMK A01 T02710200  RH  065%=      5-min Rain = 0
KCO1 250340Z 31005KT 27/20 A2993 RMK A01 T02720199  RH  065%=      5-min Rain = 0
KCO1 250341Z 33005KT 27/20 A2993 RMK A01 T02720201  RH  065%=      5-min Rain = 0
KCO1 250342Z 33004KT 27/20 A2993 RMK A01 T02720202  RH  066%=      5-min Rain = 0
KCO1 250343Z 33004KT 27/20 A2993 RMK A01 T02710201  RH  066%=      5-min Rain = 0
KCO1 250344Z 33004KT 27/20 A2993 RMK A01 T02700201  RH  066%=      5-min Rain = 0
KCO1 250345Z 34004KT 27/20 A2993 RMK A01 T02700202  RH  066%=      5-min Rain = 0
KCO1 250346Z 32004KT 27/20 A2993 RMK A01 T02700202  RH  066%=      5-min Rain = 0
KCO1 250347Z 32005KT 27/20 A2993 RMK A01 T02690198  RH  065%=      5-min Rain = 0
KCO1 250348Z 33004KT 27/20 A2993 RMK A01 T02700196  RH  064%=      5-min Rain = 0
KCO1 250349Z 32002KT 27/20 A2993 RMK A01 T02720201  RH  065%=      5-min Rain = 0
KCO1 250350Z 32002KT 27/20 A2993 RMK A01 T02720201  RH  065%=      5-min Rain = 0
KCO1 250351Z 30001KT 27/20 A2993 RMK A01 T02710199  RH  065%=      5-min Rain = 0
KCO1 250352Z 28002KT 27/20 A2993 RMK A01 T02710198  RH  064%=      5-min Rain = 0
KCO1 250353Z 28002KT 27/20 A2993 RMK A01 T02710200  RH  065%=      5-min Rain = 0
KCO1 250354Z 32003KT 27/20 A2993 RMK A01 T02700199  RH  065%=      5-min Rain = 0
KCO1 250355Z 32003KT 27/20 A2993 RMK A01 T02690201  RH  066%=      5-min Rain = 0
KCO1 250356Z 33002KT 27/20 A2993 RMK A01 T02690200  RH  066%=      5-min Rain = 0
KCO1 250357Z 33003KT 27/20 A2993 RMK A01 T02690201  RH  066%=      5-min Rain = 0
KCO1 250358Z 31004KT 27/20 A2993 RMK A01 T02680197  RH  065%=      5-min Rain = 0
KCO1 250359Z 31002KT 27/19 A2993 RMK A01 T02680194  RH  064%=      5-min Rain = 0
KCO1 250400Z 27002KT 27/19 A2993 RMK A01 T02690194  RH  063%=      5-min Rain = 0
KCO1 250401Z 30002KT 27/20 A2993 RMK A01 T02700195  RH  064%=      5-min Rain = 0
KCO1 250402Z 30001KT 27/20 A2993 RMK A01 T02700197  RH  064%=      5-min Rain = 0
KCO1 250403Z 31002KT 27/20 A2993 RMK A01 T02700197  RH  064%=      5-min Rain = 0
KCO1 250404Z 33002KT 27/20 A2993 RMK A01 T02700198  RH  065%=      5-min Rain = 0
KCO1 250405Z 33003KT 27/20 A2993 RMK A01 T02700198  RH  065%=      5-min Rain = 0
KCO1 250406Z 34005KT 27/20 A2993 RMK A01 T02690200  RH  066%=      5-min Rain = 0
KCO1 250407Z 35006KT 27/20 A2993 RMK A01 T02680198  RH  065%=      5-min Rain = 0
KCO1 250408Z 01006KT 27/20 A2993 RMK A01 T02670195  RH  065%=      5-min Rain = 0
KCO1 250409Z 02005KT 27/20 A2993 RMK A01 T02660197  RH  066%=      5-min Rain = 0
KCO1 250410Z 03004KT 27/20 A2993 RMK A01 T02660199  RH  067%=      5-min Rain = 0
KCO1 250411Z 04004KT 26/20 A2993 RMK A01 T02640199  RH  067%=      5-min Rain = 0
KCO1 250412Z 07003KT 26/20 A2993 RMK A01 T02630199  RH  068%=      5-min Rain = 0
KCO1 250413Z 08003KT 26/20 A2993 RMK A01 T02620203  RH  070%=      5-min Rain = 0
KCO1 250414Z 07003KT 26/20 A2993 RMK A01 T02600203  RH  071%=      5-min Rain = 0
KCO1 250415Z 08003KT 26/20 A2993 RMK A01 T02590201  RH  071%=      5-min Rain = 0
KCO1 250416Z 09003KT 26/20 A2993 RMK A01 T02570200  RH  071%=      5-min Rain = 0
KCO1 250417Z 11003KT 26/20 A2993 RMK A01 T02560200  RH  071%=      5-min Rain = 0
KCO1 250418Z 10003KT 26/20 A2993 RMK A01 T02550200  RH  071%=      5-min Rain = 0
KCO1 250419Z 10002KT 26/20 A2993 RMK A01 T02550199  RH  071%=      5-min Rain = 0
KCO1 250420Z 11003KT 25/20 A2993 RMK A01 T02530197  RH  071%=      5-min Rain = 0
KCO1 250421Z 10003KT 25/20 A2993 RMK A01 T02530195  RH  070%=      5-min Rain = 0
KCO1 250422Z 10003KT 25/19 A2993 RMK A01 T02530191  RH  069%=      5-min Rain = 0
KCO1 250423Z 10004KT 25/19 A2993 RMK A01 T02530190  RH  068%=      5-min Rain = 0
KCO1 250424Z 08004KT 25/19 A2993 RMK A01 T02530192  RH  069%=      5-min Rain = 0
KCO1 250425Z 09004KT 25/19 A2993 RMK A01 T02530191  RH  068%=      5-min Rain = 0
KCO1 250426Z 09004KT 25/19 A2993 RMK A01 T02540191  RH  068%=      5-min Rain = 0
KCO1 250427Z 10004KT 25/19 A2993 RMK A01 T02530193  RH  069%=      5-min Rain = 0
KCO1 250428Z 10004KT 25/20 A2993 RMK A01 T02530195  RH  070%=      5-min Rain = 0
KCO1 250429Z 10004KT 25/20 A2993 RMK A01 T02520195  RH  071%=      5-min Rain = 0
KCO1 250430Z 10004KT 25/20 A2993 RMK A01 T02520196  RH  071%=      5-min Rain = 0
KCO1 250431Z 09004KT 25/20 A2993 RMK A01 T02510196  RH  072%=      5-min Rain = 0
KCO1 250432Z 10004KT 25/20 A2993 RMK A01 T02500197  RH  072%=      5-min Rain = 0
KCO1 250433Z 10005KT 25/20 A2993 RMK A01 T02500197  RH  073%=      5-min Rain = 0
KCO1 250434Z 10006KT 25/20 A2993 RMK A01 T02500198  RH  073%=      5-min Rain = 0
KCO1 250435Z 11005KT 25/20 A2993 RMK A01 T02490198  RH  073%=      5-min Rain = 0
KCO1 250436Z 11005KT 25/20 A2993 RMK A01 T02490198  RH  073%=      5-min Rain = 0
KCO1 250437Z 12004KT 25/20 A2993 RMK A01 T02490199  RH  074%=      5-min Rain = 0
KCO1 250438Z 11005KT 25/20 A2993 RMK A01 T02490199  RH  074%=      5-min Rain = 0
KCO1 250439Z 10006KT 25/20 A2993 RMK A01 T02490200  RH  074%=      5-min Rain = 0
KCO1 250440Z 10006KT 25/20 A2992 RMK A01 T02480200  RH  075%=      5-min Rain = 0
KCO1 250441Z 10005KT 25/20 A2992 RMK A01 T02480201  RH  075%=      5-min Rain = 0
KCO1 250442Z 11005KT 25/20 A2992 RMK A01 T02480201  RH  075%=      5-min Rain = 0
KCO1 250443Z 11006KT 25/20 A2992 RMK A01 T02480200  RH  075%=      5-min Rain = 0
KCO1 250444Z 11006KT 25/20 A2992 RMK A01 T02480201  RH  075%=      5-min Rain = 0
KCO1 250445Z 11006KT 25/20 A2992 RMK A01 T02490201  RH  075%=      5-min Rain = 0
KCO1 250446Z 11005KT 25/20 A2992 RMK A01 T02490202  RH  075%=      5-min Rain = 0
KCO1 250447Z 11005KT 25/20 A2992 RMK A01 T02490203  RH  076%=      5-min Rain = 0
KCO1 250448Z 11006KT 25/20 A2992 RMK A01 T02490203  RH  076%=      5-min Rain = 0
KCO1 250449Z 11006KT 25/20 A2992 RMK A01 T02490204  RH  076%=      5-min Rain = 0
KCO1 250450Z 12006KT 25/20 A2992 RMK A01 T02480204  RH  076%=      5-min Rain = 0
KCO1 250451Z 12006KT 25/20 A2992 RMK A01 T02480204  RH  077%=      5-min Rain = 0
KCO1 250452Z 12006KT 25/20 A2992 RMK A01 T02480204  RH  077%=      5-min Rain = 0
KCO1 250453Z 12006KT 25/21 A2992 RMK A01 T02480205  RH  077%=      5-min Rain = 0
KCO1 250454Z 12007KT 25/21 A2992 RMK A01 T02480205  RH  077%=      5-min Rain = 0
KCO1 250455Z 12006KT 25/21 A2992 RMK A01 T02470205  RH  077%=      5-min Rain = 0
KCO1 250456Z 13006KT 25/21 A2992 RMK A01 T02470205  RH  077%=      5-min Rain = 0
KCO1 250457Z 13006KT 25/21 A2992 RMK A01 T02480206  RH  078%=      5-min Rain = 0
KCO1 250458Z 13006KT 25/21 A2992 RMK A01 T02470206  RH  078%=      5-min Rain = 0
KCO1 250459Z 13005KT 25/21 A2992 RMK A01 T02470206  RH  078%=      5-min Rain = 0

Page generated in 0.1468 seconds.